GFSSW_500_spd_000.txt.gz
Wind_Speed
19 17 17 16 17 16 16 17 17 16 17 17 16 17 18 18 20 20 19 20 20 19 20 21 22 23 25 25 24 25 24 22 25 25 23 24 23 21 20 21 19 23 24 21 19
21 21 20 19 19 20 21 22 23 23 23 23 22 21 21 21 22 22 22 22 22 21 21 22 23 25 26 26 27 27 25 24 28 27 27 26 25 25 24 24 23 26 26 23 21
27 27 26 26 25 25 26 27 27 28 28 28 28 27 26 26 26 26 26 26 25 24 24 23 24 25 27 29 29 27 26 27 28 31 30 27 27 27 28 24 26 26 27 28 25
34 33 33 32 32 32 32 33 33 33 34 33 32 31 28 27 28 28 26 26 26 26 28 27 27 28 29 31 31 30 27 29 27 32 31 31 28 29 30 26 30 30 32 31 31
40 39 39 39 38 38 39 39 38 38 37 37 36 33 30 26 28 28 28 28 28 29 31 32 33 36 35 36 35 33 30 29 27 30 32 33 28 35 26 26 32 35 31 30 30
39 40 40 39 39 39 38 37 36 36 36 36 35 33 29 22 31 33 32 31 34 35 37 39 39 41 39 36 37 37 35 32 30 30 32 36 30 40 25 35 32 34 34 32 28
34 35 35 35 36 36 37 37 36 37 37 37 37 37 33 25 30 34 38 39 40 41 41 43 44 44 44 41 43 42 42 36 29 32 39 43 42 33 32 36 34 33 35 33 32
42 41 42 42 41 41 41 40 38 39 40 41 41 42 36 31 36 38 42 43 42 43 43 44 46 48 46 43 46 46 48 41 31 35 41 48 50 31 36 41 39 36 35 36 34
44 45 45 44 44 44 44 43 43 43 43 45 45 46 42 36 37 40 41 42 44 44 44 43 46 49 47 43 49 45 52 51 45 32 42 48 49 38 35 39 42 41 39 41 40
46 47 48 47 46 46 47 46 47 47 48 48 49 50 49 45 43 41 41 43 44 46 47 46 49 50 45 43 50 49 51 51 50 37 43 52 51 46 43 43 36 35 34 37 40
51 51 50 51 51 50 50 51 51 52 52 52 54 54 53 52 50 44 42 43 46 47 47 52 55 51 44 47 49 52 52 53 50 46 52 51 52 48 42 38 32 33 36 34 30
50 50 49 50 51 52 52 53 55 56 55 56 54 55 54 54 53 48 47 47 46 46 47 51 55 47 51 51 51 52 53 54 53 52 54 54 52 50 46 39 36 30 26 31 34
54 54 53 53 55 55 55 56 56 57 59 56 55 55 54 54 53 51 51 50 51 50 47 53 52 46 48 50 48 48 51 50 56 54 54 56 53 51 44 37 31 34 37 34 34
56 59 54 57 58 58 59 58 57 59 62 63 61 59 57 55 54 54 49 46 42 39 39 47 42 42 42 46 46 52 45 50 51 54 56 53 53 49 46 43 38 38 39 34 31
51 51 53 55 54 55 58 56 55 56 61 59 61 58 52 51 50 49 52 52 51 48 48 50 48 47 50 44 48 54 54 50 52 55 58 60 60 53 54 55 55 48 44 45 46
47 50 50 50 52 54 54 53 50 52 66 63 61 60 59 58 56 57 57 61 59 60 59 55 54 56 55 55 52 52 55 59 57 57 61 61 60 54 56 60 62 58 61 62 60
51 49 51 49 49 53 55 52 52 57 60 61 58 55 52 53 54 56 58 59 59 60 59 58 58 58 57 57 55 51 52 58 63 65 63 61 65 57 62 61 64 63 65 66 66
51 52 53 52 51 53 58 56 59 63 62 60 59 58 57 56 57 59 59 60 60 62 67 68 65 58 57 56 59 58 59 62 63 64 65 63 70 65 60 60 61 66 67 68 66
62 64 58 59 64 65 62 63 67 62 59 61 63 67 62 60 59 62 65 64 64 65 68 70 77 73 71 67 64 64 65 57 61 61 65 66 69 69 63 61 59 64 65 62 60
64 66 67 61 63 62 66 74 73 70 70 73 75 72 72 72 70 70 73 75 74 72 73 75 79 77 77 76 75 70 68 69 68 69 72 75 73 72 62 59 62 62 62 62 60
66 68 69 67 66 69 72 74 71 68 68 71 72 71 73 74 69 66 70 71 73 71 70 71 74 78 81 81 75 76 75 73 69 65 70 74 73 65 64 58 63 64 64 65 59
66 68 69 70 70 72 74 68 67 68 69 71 71 69 71 69 71 72 72 69 67 71 74 71 73 75 73 73 72 72 72 69 70 74 72 70 68 57 58 60 62 66 67 66 68
62 62 63 65 68 66 65 63 63 63 65 70 71 70 69 70 71 69 69 70 69 67 70 69 65 72 73 74 75 75 70 70 69 63 63 64 64 55 58 65 70 70 72 72 73
61 63 64 65 64 65 64 65 67 64 65 65 66 67 69 70 67 65 66 66 64 65 65 67 67 70 72 72 69 69 67 66 66 69 69 71 74 71 76 74 65 65 67 70 73
66 66 66 67 65 65 64 67 67 66 64 62 65 65 66 68 67 63 57 62 65 66 64 64 69 67 67 68 68 66 67 65 68 70 76 76 81 75 73 65 66 66 68 66 65
69 67 67 66 64 64 63 63 63 61 62 64 65 63 65 68 67 67 67 68 67 66 65 65 67 68 68 66 67 71 69 68 69 71 73 73 76 75 76 79 73 74 74 65 69
65 66 65 65 65 65 65 64 64 64 65 66 68 69 68 69 70 71 70 70 70 70 69 70 69 71 77 71 74 79 73 73 75 73 76 81 79 79 78 77 76 75 79 81 81

GFSSW_500_spd_003.txt.gz
Wind_Speed
22 20 19 18 18 17 17 15 15 15 14 15 15 14 15 16 18 18 18 19 19 18 19 19 19 19 21 21 22 23 22 20 23 23 21 21 20 22 21 20 22 26 23 21 19
21 21 20 19 18 18 18 19 19 19 20 21 21 20 20 20 22 22 22 22 22 22 21 20 21 22 23 24 23 25 23 23 25 26 25 24 22 25 24 22 24 25 28 24 24
25 25 24 24 24 24 23 23 23 24 24 25 26 25 25 24 25 24 25 24 24 23 22 23 24 24 24 26 27 27 26 25 25 28 27 24 22 25 27 22 26 28 27 28 27
33 32 31 30 29 29 29 30 30 31 31 31 31 30 29 27 27 27 26 25 24 24 25 25 27 29 28 30 30 28 25 26 25 28 29 28 25 27 30 23 30 29 29 29 31
40 39 38 37 36 35 35 35 36 36 37 37 36 34 30 26 28 29 27 26 27 29 29 31 33 36 34 35 33 32 31 29 28 29 29 32 27 35 26 29 29 30 28 30 30
37 38 40 40 40 40 40 39 38 36 36 34 33 31 28 21 28 30 30 31 31 31 35 39 40 42 41 40 40 38 36 32 32 33 35 38 31 35 24 38 35 33 30 32 32
34 34 33 34 35 34 34 33 33 34 35 36 37 36 32 24 30 32 33 33 35 37 39 41 42 43 42 41 41 43 42 36 31 35 43 45 38 32 31 39 39 35 34 34 33
40 40 39 38 38 38 39 39 40 40 40 40 41 41 35 30 34 36 37 37 37 38 39 41 42 44 43 42 42 44 45 42 34 38 43 48 46 32 36 38 37 36 35 38 37
44 43 44 43 44 44 43 43 43 43 43 44 44 46 41 35 35 38 38 38 40 42 43 42 45 46 43 42 47 45 51 48 43 34 44 50 49 39 36 39 36 34 35 34 34
46 46 45 44 44 44 44 44 44 45 46 48 49 49 48 42 39 38 40 42 43 44 44 45 48 49 43 44 51 51 54 52 50 38 43 51 52 43 39 39 35 35 35 33 33
49 50 49 49 49 48 49 49 49 49 49 50 52 53 51 51 47 44 44 45 46 46 45 48 52 48 44 48 51 53 55 56 48 45 52 46 51 47 41 40 36 36 34 36 37
51 50 50 49 48 49 49 50 49 50 49 50 51 53 54 54 53 48 45 46 46 47 48 50 54 49 52 52 53 53 55 54 53 49 51 51 51 48 48 42 38 35 30 33 33
54 53 52 52 51 51 51 52 52 54 57 52 54 59 60 56 53 49 48 47 47 49 48 52 50 46 49 49 49 49 52 51 55 50 51 54 57 54 48 45 37 41 42 41 38
58 57 57 60 58 58 58 58 58 57 57 59 58 54 50 51 50 49 45 42 41 41 42 46 43 45 46 48 46 50 48 52 52 53 56 53 55 53 56 52 50 49 48 44 35
57 62 56 56 55 55 54 55 51 49 55 54 55 53 49 46 45 45 46 48 49 50 53 51 48 46 51 52 56 57 56 55 58 58 62 61 60 58 58 61 56 53 48 45 47
49 49 48 48 51 49 48 48 46 45 58 56 54 50 48 49 50 49 47 45 45 46 48 47 47 47 47 49 50 55 57 58 62 64 64 62 62 61 63 63 61 47 23 48 56
54 53 51 51 50 49 46 46 46 51 55 54 53 52 49 49 50 52 52 51 50 52 53 55 53 54 49 52 50 51 53 58 62 61 63 65 67 68 66 63 63 60 60 57 57
56 57 51 47 48 50 49 48 52 56 50 50 53 56 55 53 55 54 53 54 56 57 59 63 64 57 58 57 58 59 60 63 64 67 68 64 70 66 66 66 61 65 67 63 63
53 49 50 50 51 51 54 58 55 55 56 56 56 61 59 61 62 64 65 64 62 56 60 66 70 64 65 66 65 68 66 60 65 66 68 74 76 71 64 67 69 68 67 65 66
61 57 53 56 56 58 63 63 61 60 61 63 64 64 66 68 70 69 69 68 68 65 64 61 65 70 68 66 65 63 62 64 63 64 68 71 74 75 68 67 68 70 74 75 73
65 61 60 54 56 58 64 67 63 62 65 65 69 69 68 68 68 66 69 68 66 64 63 67 71 74 70 72 67 67 67 68 69 70 69 67 71 70 67 65 67 69 68 68 68
60 62 57 57 59 59 59 57 58 60 60 62 62 63 64 63 65 67 68 68 66 67 69 65 67 70 73 71 73 74 71 64 59 55 68 70 65 61 60 63 66 65 64 68 69
56 55 55 55 55 54 53 54 55 54 55 59 59 59 59 61 65 65 65 64 61 59 56 57 59 67 71 68 68 68 63 59 62 68 72 70 68 64 55 49 50 57 65 67 68
55 55 56 56 56 56 56 54 56 54 56 56 58 59 61 61 60 63 63 63 63 64 64 66 69 71 72 70 66 68 65 66 69 73 68 61 65 62 60 58 61 59 57 61 66
56 57 57 57 55 54 56 57 55 54 53 52 57 54 56 59 60 61 60 61 61 62 63 64 67 66 66 68 71 70 69 67 70 67 71 70 67 63 66 68 69 71 73 75 76
57 56 57 55 54 56 56 55 56 55 58 57 58 55 55 58 59 60 60 61 63 63 66 68 72 72 73 70 72 74 71 72 72 70 73 73 76 75 73 72 75 78 78 75 74
56 56 57 58 57 58 60 59 59 60 63 62 63 62 60 62 64 65 67 68 69 69 69 73 75 77 81 77 79 83 77 75 75 74 76 78 76 76 77 77 79 79 81 81 81

GFSSW_500_spd_006.txt.gz
Wind_Speed
23 22 21 20 19 18 17 16 15 15 14 12 13 13 13 14 15 16 16 18 17 18 19 18 18 17 17 18 18 18 18 19 20 20 19 19 20 23 21 21 23 24 23 23 22
24 23 22 21 19 19 18 20 19 19 18 17 17 18 18 19 21 21 21 22 20 19 21 20 20 19 19 20 19 20 20 20 21 21 19 18 19 23 22 21 25 24 27 24 24
25 24 23 23 22 22 22 22 22 22 22 22 22 22 23 23 25 24 25 24 23 21 20 20 21 21 21 22 24 24 24 25 24 24 21 19 21 22 24 19 26 25 27 27 25
29 29 28 28 27 27 27 27 27 28 29 29 28 28 28 29 29 27 26 25 24 22 22 23 24 23 24 27 28 30 27 29 27 28 27 26 24 24 25 20 28 25 23 25 26
36 36 36 36 35 35 34 33 33 34 34 34 35 34 32 27 31 30 28 26 25 25 27 27 28 31 33 33 33 33 31 31 32 32 33 35 27 34 24 29 31 29 27 28 28
38 38 38 38 39 39 39 39 39 39 39 38 37 36 29 22 29 30 29 29 29 30 31 32 33 36 34 33 34 32 30 30 30 32 39 40 32 35 27 37 34 33 32 32 30
36 35 34 33 34 33 33 34 35 35 34 33 33 32 29 28 31 34 33 32 33 34 35 36 36 36 34 35 36 37 36 33 30 35 40 43 35 34 36 39 38 35 34 32 32
39 39 38 38 37 37 36 36 35 36 37 39 40 40 34 32 34 35 37 37 38 37 38 38 39 40 38 36 38 39 41 39 31 35 45 47 42 31 38 40 37 35 32 33 34
41 41 42 43 43 43 43 42 42 43 43 43 42 42 37 34 35 37 39 39 40 40 40 40 42 44 41 41 44 43 49 46 36 32 46 52 49 35 35 39 33 33 33 33 35
43 44 45 45 44 44 44 44 44 44 45 45 47 46 46 41 38 38 40 41 42 44 45 45 46 45 40 45 50 49 50 48 47 37 44 47 50 43 35 36 32 30 31 36 39
46 47 48 47 49 48 48 47 48 49 48 49 50 49 48 47 44 40 39 41 45 46 48 49 50 45 43 47 51 53 52 53 48 49 52 45 51 49 42 36 32 31 34 35 38
51 50 51 52 50 50 49 49 50 50 48 49 48 49 49 49 48 44 42 44 45 45 46 48 52 45 47 49 50 53 57 50 50 45 50 52 50 49 47 40 38 37 36 36 37
53 54 55 55 55 53 52 51 51 50 52 48 49 52 55 54 52 50 48 44 41 43 43 49 50 50 51 46 45 46 49 52 53 47 46 51 52 53 49 42 44 41 43 43 42
55 54 58 58 57 57 57 57 55 55 56 58 58 59 56 53 49 42 39 36 34 34 37 44 42 45 47 47 47 52 49 51 55 56 54 51 56 53 58 53 55 54 54 50 50
50 54 56 59 60 59 59 59 59 58 57 57 60 55 49 42 39 38 38 39 40 42 43 44 45 44 45 44 44 50 51 49 50 56 58 55 55 57 59 60 57 59 55 55 51
41 43 48 47 49 52 52 51 49 49 61 54 52 48 46 46 44 42 43 45 43 42 44 45 47 49 49 47 47 47 49 52 52 52 60 57 56 59 55 56 49 53 57 48 36
46 50 51 55 55 53 55 56 54 57 54 52 47 47 46 44 44 44 44 46 49 52 50 51 50 51 52 53 54 54 55 57 61 60 59 61 61 65 61 59 58 57 58 60 58
53 52 48 53 58 59 59 57 58 59 55 46 44 47 50 50 48 48 48 48 48 50 55 58 57 58 59 59 61 62 61 60 62 65 68 65 69 64 68 67 69 67 66 67 68
56 54 52 57 56 56 56 58 58 55 52 44 44 50 53 55 56 58 58 56 56 57 57 59 65 64 64 65 62 64 63 59 61 63 67 73 75 75 67 71 73 71 73 72 71
59 61 61 57 58 53 56 59 53 44 44 49 51 52 54 58 62 64 65 66 64 61 59 60 64 65 60 59 59 52 62 63 64 66 70 71 72 73 67 67 67 65 64 65 67
63 68 65 63 66 68 63 58 56 54 51 52 51 54 54 57 58 59 61 62 63 60 60 61 58 64 62 62 58 61 65 66 63 65 69 70 69 64 63 68 68 66 66 67 65
74 74 67 68 71 77 74 64 56 45 46 50 51 53 53 53 56 57 58 57 57 58 60 59 60 62 62 59 62 59 55 53 57 63 64 63 66 59 49 48 60 68 68 68 69
70 66 63 65 67 61 49 45 47 49 48 50 51 51 51 52 56 55 55 56 56 56 58 59 58 58 63 62 63 64 65 67 70 73 72 66 55 55 63 67 67 67 64 63 66
70 66 63 61 59 52 50 48 48 48 50 53 51 52 54 55 55 57 56 56 55 55 56 59 62 63 65 63 65 67 66 67 68 72 71 68 67 65 72 74 70 64 63 67 67
66 63 61 58 54 51 52 50 49 50 51 53 52 52 54 56 56 56 56 56 54 55 56 59 62 62 63 64 65 68 71 70 73 75 78 79 79 74 69 74 71 69 68 66 65
57 55 54 53 52 52 51 49 50 51 53 53 53 53 55 56 56 56 57 57 57 56 57 60 65 64 69 66 71 75 75 74 76 78 80 81 83 79 79 77 74 73 73 74 75
54 54 53 52 51 51 51 50 51 51 53 53 56 56 57 58 59 60 60 60 62 62 61 65 68 71 78 75 79 84 81 79 81 80 82 85 84 82 83 81 80 80 79 80 81

GFSSW_500_spd_009.txt.gz
Wind_Speed
24 23 22 21 20 18 18 18 16 15 15 14 13 13 13 15 15 15 16 18 20 20 19 19 19 19 18 18 17 17 16 16 18 18 20 18 21 19 22 22 25 22 25 25 24
26 26 25 24 23 21 20 21 22 22 21 20 19 17 17 18 20 21 21 24 24 23 22 23 22 20 18 18 17 18 18 22 21 22 21 22 21 21 21 22 23 24 25 24 23
29 29 27 25 23 22 22 22 22 23 24 24 22 22 23 23 25 27 27 27 27 26 25 24 22 21 21 21 20 21 24 27 25 26 26 26 26 25 25 22 27 28 26 25 21
32 29 28 27 26 26 26 26 27 28 28 28 28 28 29 29 31 31 32 32 30 27 26 24 23 24 24 24 26 30 30 29 29 29 29 30 29 30 29 24 31 29 29 27 26
34 33 32 33 33 33 33 33 33 34 34 34 34 33 33 33 35 37 34 31 29 28 27 27 28 30 28 30 33 31 28 28 29 28 31 33 31 35 26 34 33 32 31 31 31
38 38 38 38 38 37 38 38 39 39 40 40 40 38 36 31 35 35 30 29 30 31 31 31 32 34 32 33 34 32 31 30 29 31 34 33 28 33 31 34 33 34 34 34 35
37 37 36 36 36 35 34 34 34 34 35 36 37 35 30 28 32 35 36 35 34 34 33 35 37 38 35 35 35 36 36 34 32 34 38 40 29 33 35 35 33 33 34 36 37
38 37 38 38 37 37 36 37 36 37 37 37 37 37 35 35 37 39 40 38 37 36 38 39 40 39 38 40 40 40 42 38 35 36 45 47 34 32 35 38 33 34 34 36 37
40 40 41 41 41 41 42 42 43 43 43 44 44 44 41 37 36 38 39 39 40 40 40 41 42 43 41 43 47 45 48 45 41 37 47 51 44 34 36 39 33 31 36 35 37
41 41 41 41 42 42 42 43 44 45 45 45 47 45 45 41 41 41 41 41 44 45 44 44 46 47 42 46 50 48 50 51 51 39 46 49 54 45 39 38 33 31 33 36 35
44 44 44 43 43 44 44 44 45 48 47 48 50 50 51 48 46 44 43 43 44 45 45 44 48 49 44 49 48 50 53 54 52 52 52 47 51 48 45 34 35 36 37 37 38
48 48 47 47 48 49 49 49 48 49 50 48 48 50 49 49 49 43 40 42 42 44 47 49 53 53 49 48 51 52 56 57 57 56 56 54 49 46 50 44 40 38 39 40 38
53 51 51 52 53 52 52 52 53 54 54 50 49 52 53 52 51 50 48 48 48 50 50 52 52 51 49 51 51 52 54 55 56 55 55 58 57 54 49 47 45 45 43 40 43
55 55 55 57 56 57 57 56 55 56 56 58 58 56 57 57 57 53 52 49 46 43 42 48 46 46 49 48 49 51 51 53 56 56 57 57 59 50 50 51 52 47 46 48 45
49 53 55 57 57 57 56 55 52 52 55 57 57 56 51 49 48 47 43 42 42 40 42 43 43 44 48 50 50 51 50 48 49 52 54 52 57 57 55 57 58 56 52 52 50
46 47 47 48 50 50 50 47 45 45 55 50 49 49 48 48 47 46 46 46 45 44 42 43 46 48 46 47 49 50 51 53 54 55 59 58 59 62 60 63 63 63 59 55 52
48 48 45 47 51 50 45 45 49 54 57 55 51 49 50 49 44 42 41 42 43 46 47 46 47 50 49 50 50 50 53 57 61 62 63 60 65 65 64 65 65 64 63 62 62
52 47 49 50 53 51 50 48 52 56 56 54 55 56 53 51 46 44 41 41 44 46 48 50 50 54 57 57 58 59 59 59 62 64 68 67 72 69 68 69 71 72 70 69 69
51 52 52 54 56 53 53 52 53 55 55 56 57 57 51 49 47 47 46 45 47 49 53 54 54 57 58 59 60 62 59 60 61 61 62 68 69 63 69 69 68 69 70 72 72
50 53 56 53 54 54 56 60 58 54 54 56 56 55 55 52 51 49 48 49 49 51 54 55 59 56 59 59 60 59 57 56 52 51 55 63 66 70 61 65 64 64 65 65 68
66 65 61 65 62 60 59 56 54 55 58 60 60 61 60 65 67 69 72 66 54 49 51 58 59 54 58 57 55 57 58 57 58 61 66 68 66 62 60 60 60 62 65 68 66
72 71 68 69 67 70 69 69 71 67 72 66 60 59 56 47 50 48 48 46 48 49 51 53 58 57 54 54 57 59 57 53 52 60 61 61 60 51 56 63 68 68 68 66 68
71 74 72 73 74 73 70 68 66 64 62 60 59 56 48 48 52 49 49 50 50 51 54 56 59 60 59 56 57 58 60 62 61 58 67 70 67 59 63 65 68 71 66 61 64
67 70 72 72 69 67 64 65 66 63 60 56 51 49 50 51 52 54 53 54 54 55 56 59 60 61 62 61 59 62 61 61 55 61 55 59 68 64 66 72 76 75 73 75 77
69 70 69 68 68 65 65 66 65 61 59 54 54 54 55 56 55 56 56 57 56 56 57 60 62 61 63 63 63 65 66 63 65 65 71 76 75 71 72 78 83 85 82 82 84
71 67 67 66 63 64 63 61 58 56 54 54 55 57 56 56 57 57 58 59 58 58 59 62 66 65 67 65 66 70 69 69 69 70 75 79 84 80 85 86 88 88 87 87 89
66 63 62 61 58 56 54 50 51 53 55 54 55 57 58 59 60 59 59 60 61 61 62 65 67 68 74 68 71 79 73 76 79 80 83 86 87 88 88 89 90 90 87 88 88

GFSSW_500_spd_012.txt.gz
Wind_Speed
23 23 22 20 20 19 18 17 17 16 14 14 13 12 13 13 14 14 15 15 16 19 21 21 21 20 20 20 19 17 15 15 17 20 21 20 17 21 19 20 22 20 22 23 19
27 26 25 24 23 23 21 19 19 20 20 20 20 19 18 18 19 19 20 20 22 23 23 25 24 23 21 20 19 19 17 18 21 23 25 25 24 24 22 24 25 25 24 23 23
31 29 28 27 26 25 22 21 20 20 21 23 24 23 24 24 24 26 26 26 27 29 30 28 25 23 21 19 22 21 23 25 26 28 27 28 28 28 27 24 30 28 25 26 26
33 32 31 29 28 26 24 24 24 25 25 26 26 27 28 28 30 32 30 31 33 33 30 28 25 24 21 23 25 24 27 30 28 29 25 27 27 29 25 25 31 30 29 28 29
35 34 33 32 31 29 29 29 30 30 31 31 32 32 32 32 35 38 35 35 35 32 29 26 26 26 26 28 30 29 28 29 30 29 30 29 29 30 25 26 26 29 30 30 32
36 35 35 35 35 35 36 36 36 37 37 38 38 38 38 37 38 40 37 32 30 29 31 32 31 31 30 32 35 32 32 30 31 33 33 29 28 33 29 27 28 29 32 34 35
38 39 39 39 39 39 39 38 37 35 35 35 33 33 31 30 32 33 33 32 33 34 34 35 35 35 35 34 35 34 37 35 35 38 38 35 29 35 35 32 26 29 34 35 38
37 37 36 36 36 36 36 35 35 35 36 35 36 37 35 32 33 36 38 38 38 38 37 35 38 38 39 38 39 39 40 39 39 40 42 42 33 32 37 38 32 35 34 36 40
41 40 40 40 40 40 40 40 40 40 40 41 41 41 40 37 38 40 40 39 39 38 39 40 41 42 41 41 44 40 45 45 46 40 44 47 45 34 37 37 38 37 37 38 37
40 40 40 40 40 40 39 40 41 41 41 41 42 42 42 38 39 40 41 42 42 43 43 44 46 47 41 42 46 45 46 48 49 46 46 48 48 50 41 39 39 38 37 38 31
43 43 44 43 43 43 42 43 43 44 41 41 43 43 44 42 43 42 43 42 43 44 44 48 46 46 44 45 46 50 54 54 50 49 51 47 50 53 51 41 36 38 44 40 34
45 46 46 46 45 44 45 46 46 48 47 43 45 48 47 45 46 42 39 40 41 42 46 46 47 47 51 48 50 54 57 56 55 52 53 50 50 45 47 48 51 41 37 39 40
50 51 51 50 48 49 49 49 50 50 52 49 47 50 50 49 48 48 43 45 45 47 48 50 50 53 53 54 53 54 53 53 53 52 51 53 56 53 45 44 45 42 38 35 36
56 57 57 56 52 53 53 52 53 52 55 57 58 55 50 49 48 46 47 46 46 43 39 47 39 42 49 52 50 47 47 47 47 49 54 55 58 51 46 52 53 49 46 43 43
58 54 50 52 53 53 51 51 51 51 55 55 56 52 47 42 41 42 44 42 41 39 37 40 42 40 42 44 46 47 46 48 50 51 52 53 52 53 53 57 58 55 54 48 45
52 48 45 47 51 53 51 48 45 48 55 51 50 48 47 47 47 45 43 45 47 48 47 44 46 45 46 46 47 50 51 50 50 52 56 53 56 60 55 56 60 56 52 54 49
47 45 44 43 44 49 47 45 45 51 53 52 48 45 46 48 49 49 49 49 47 48 46 46 43 42 45 46 48 47 48 50 54 55 55 57 60 58 60 61 62 60 60 58 53
44 47 46 45 47 49 48 46 52 55 52 49 48 48 49 48 49 50 50 47 39 41 44 43 43 44 43 42 46 49 50 50 54 55 57 56 60 58 56 58 62 57 56 58 63
48 50 48 47 51 54 56 55 52 52 52 54 52 52 53 52 52 52 51 51 52 50 46 41 43 46 51 52 53 55 55 55 59 60 60 56 57 58 59 59 59 61 62 63 67
51 51 49 52 54 58 55 55 53 49 52 53 52 53 55 51 51 50 48 49 50 50 53 58 63 61 57 54 53 52 55 57 59 60 61 58 55 54 54 57 60 63 65 65 65
53 60 56 53 49 55 57 57 52 48 51 52 51 53 55 59 61 61 59 61 62 64 60 52 52 51 48 47 46 51 52 52 55 56 59 59 58 51 57 58 60 60 63 66 65
66 61 58 60 64 66 69 66 64 64 63 63 64 66 67 66 63 65 68 58 56 60 60 51 51 47 46 44 47 51 51 53 58 59 60 61 60 51 51 58 62 65 67 67 69
68 67 59 60 59 61 66 69 67 68 65 67 67 67 60 58 59 60 56 52 54 53 54 53 55 56 57 54 52 53 53 55 58 61 63 64 66 52 57 62 62 70 73 65 64
61 62 63 64 65 68 71 71 70 67 65 62 62 62 60 58 56 56 54 53 53 53 52 53 55 56 58 55 55 59 58 59 61 66 65 67 67 61 60 62 60 63 67 70 74
67 66 66 68 71 68 66 67 68 65 65 62 61 59 56 58 57 56 55 55 56 56 55 57 58 60 60 60 59 61 63 61 65 66 69 69 71 68 68 71 72 77 82 85 85
75 76 72 69 68 70 67 66 67 65 61 63 63 58 56 56 57 58 57 57 57 59 59 60 63 63 63 62 63 67 66 66 67 68 72 73 76 73 76 78 80 83 86 87 90
82 75 71 72 70 69 68 64 60 59 63 64 60 55 58 58 57 56 57 59 60 61 62 63 65 66 69 68 70 75 67 70 71 72 74 79 79 79 79 80 83 84 86 87 87

GFSSW_500_spd_015.txt.gz
Wind_Speed
21 20 19 18 17 16 16 16 16 15 15 14 13 13 12 11 11 12 12 13 13 14 16 17 19 21 21 21 21 18 15 18 17 18 19 20 20 20 19 20 23 20 22 24 19
25 24 23 22 21 21 20 19 19 18 18 18 18 17 17 18 17 18 18 18 19 21 22 21 24 24 22 21 22 17 18 20 22 22 24 28 26 22 22 21 24 22 24 25 23
29 28 27 26 26 24 22 22 20 20 19 20 21 23 23 23 23 23 23 24 25 25 26 27 28 27 24 19 21 19 21 23 25 26 26 25 25 23 20 21 26 22 23 27 30
32 32 31 30 29 27 26 25 23 22 22 22 22 23 24 25 27 28 27 28 30 30 31 31 29 23 22 22 22 22 24 25 27 28 28 26 26 24 22 22 22 26 26 27 30
34 34 34 33 32 31 30 29 28 26 26 27 26 27 28 28 32 33 32 33 34 35 34 30 25 21 24 25 25 25 25 27 29 30 28 27 29 28 25 22 25 29 29 31 33
38 37 36 35 34 34 33 33 32 32 33 34 33 34 34 34 36 39 38 37 36 34 30 28 30 30 29 27 29 28 29 29 30 31 32 31 29 29 30 27 27 30 32 34 35
40 40 40 38 38 37 36 36 37 38 38 37 36 34 32 29 29 29 30 29 28 28 30 33 34 35 33 31 31 32 34 31 34 37 35 35 32 33 33 31 27 32 33 37 34
39 38 39 40 41 41 40 39 39 38 36 35 33 32 30 29 31 33 33 33 34 35 36 36 36 36 34 35 36 36 39 36 36 38 38 40 35 29 36 34 31 34 37 36 35
41 40 39 41 41 39 37 37 37 37 37 37 37 37 36 33 34 35 36 36 36 36 35 36 38 38 37 40 42 40 43 41 41 39 39 42 41 38 33 36 35 37 35 34 33
40 41 42 44 44 43 43 41 41 40 39 38 38 38 36 34 35 37 38 38 38 39 39 41 43 41 37 40 41 43 42 43 44 43 47 46 43 44 41 36 38 38 32 31 34
41 42 42 42 42 41 41 40 41 41 39 39 40 39 39 37 37 37 38 38 39 38 40 43 43 39 38 40 41 42 44 47 46 47 53 50 48 47 44 41 42 37 35 35 36
43 44 44 44 43 42 42 42 42 43 41 39 39 42 42 41 43 41 40 41 40 40 42 42 43 42 43 43 46 46 50 51 53 51 53 49 46 43 39 45 46 47 38 32 30
46 47 47 46 45 44 44 45 46 45 46 42 45 46 46 45 43 42 41 41 42 43 43 45 43 43 45 48 48 49 50 50 52 50 48 49 51 42 37 45 44 42 43 40 37
49 50 51 49 50 48 49 51 52 50 50 51 48 49 48 47 43 38 35 34 36 34 33 40 38 37 39 43 45 45 45 46 45 47 48 49 53 49 48 49 44 44 47 47 45
53 53 53 54 55 52 54 51 50 49 53 50 51 49 43 41 40 38 37 36 37 37 36 36 42 39 39 42 47 47 48 48 46 47 51 50 53 50 52 51 51 51 50 48 46
56 56 56 56 54 53 50 47 45 47 53 49 47 44 44 44 44 43 41 40 39 40 41 42 43 43 44 45 44 45 45 47 48 50 52 49 52 51 53 52 51 51 49 45 42
50 49 51 51 47 47 46 44 42 49 49 48 45 44 44 45 45 43 44 44 40 41 43 43 42 42 43 45 42 43 45 47 50 51 52 51 53 52 50 51 53 53 51 46 43
49 49 45 43 43 45 46 45 51 52 46 46 45 44 46 45 45 46 46 42 44 47 44 43 43 41 41 45 47 46 47 44 49 51 53 55 56 53 55 58 53 51 51 50 48
48 46 46 43 44 43 46 49 53 51 47 47 48 47 46 46 45 46 48 48 44 42 42 43 42 41 44 45 45 48 53 59 64 61 56 56 53 50 49 51 51 52 53 54 56
50 48 48 49 47 48 53 55 55 53 51 52 54 49 46 46 47 47 46 47 43 43 45 48 50 50 52 54 56 56 57 57 55 55 56 54 49 49 50 48 49 51 54 56 59
48 52 52 50 52 54 55 57 55 51 50 49 46 46 45 47 50 51 53 53 57 58 59 59 58 55 54 53 51 53 53 51 50 53 55 55 53 50 53 53 55 55 55 58 60
50 55 53 55 56 59 59 58 50 47 49 50 54 55 52 52 56 60 62 62 63 56 52 53 54 55 52 50 50 49 47 49 52 54 56 58 58 51 54 54 55 58 60 64 67
53 59 58 62 58 57 58 61 60 58 52 53 55 58 60 62 59 58 55 54 54 56 56 54 56 56 56 53 51 50 51 52 55 58 58 59 60 53 56 58 60 63 66 68 70
62 63 63 63 67 64 63 68 68 60 57 59 61 64 65 60 56 57 56 54 52 51 53 54 56 56 54 51 54 55 54 55 57 60 60 61 59 56 57 61 64 66 67 70 72
63 66 63 68 65 62 59 57 59 57 56 62 65 66 65 63 61 60 56 53 53 53 53 54 54 56 56 57 60 59 60 59 62 60 60 61 62 63 64 67 69 70 70 73 75
50 58 58 56 52 59 57 60 62 61 62 65 66 66 64 62 61 60 55 54 54 55 56 57 59 61 61 60 60 64 63 64 62 63 67 67 72 68 72 72 74 75 76 78 81
60 64 63 58 62 61 66 66 63 64 69 66 64 63 60 56 54 55 55 54 56 58 60 61 61 61 64 62 63 68 60 61 64 65 68 73 74 75 75 76 77 78 81 82 83

GFSSW_500_spd_021.txt.gz
Wind_Speed
23 22 20 20 19 17 17 16 15 15 15 15 15 16 15 15 16 15 14 13 13 12 12 12 13 15 15 18 20 21 20 17 16 14 15 16 18 19 20 20 20 18 20 18 16
26 26 25 24 22 22 21 20 19 19 19 18 18 19 18 18 18 17 17 17 17 17 18 17 18 18 20 21 22 23 21 19 18 18 19 19 20 21 20 18 21 22 19 17 17
30 29 28 27 26 25 25 24 23 22 21 20 20 20 21 21 21 22 22 22 22 22 22 23 23 23 24 24 24 22 19 19 21 21 22 22 24 23 23 21 21 21 25 23 20
34 33 32 31 30 30 29 28 27 25 24 22 22 21 22 23 25 25 25 24 25 26 26 26 26 27 28 28 24 18 19 21 25 24 24 24 24 24 26 27 28 25 23 25 27
39 38 37 36 34 34 33 32 30 29 27 26 24 24 23 24 26 25 26 26 27 29 30 31 31 32 32 28 21 18 24 25 26 28 27 26 26 26 28 29 29 30 28 25 25
42 42 40 39 38 37 37 36 35 33 32 30 29 27 27 28 28 29 31 32 33 34 34 33 28 26 24 23 23 25 25 26 27 29 27 28 28 27 29 29 28 27 27 29 29
44 43 42 41 40 39 38 37 36 35 34 33 32 31 30 33 33 34 35 34 33 31 29 28 29 30 29 29 28 29 27 26 28 28 31 30 28 29 30 30 29 29 31 31 30
44 45 45 44 43 43 42 41 40 38 37 36 35 34 33 34 36 37 34 32 31 31 32 33 33 31 30 30 31 30 29 29 31 30 31 32 26 27 32 31 32 33 33 33 33
47 46 44 43 42 40 40 40 40 39 38 38 39 39 36 34 34 35 34 34 34 34 34 34 33 31 29 31 32 31 32 28 27 29 33 34 28 26 30 34 35 37 37 34 32
46 46 46 45 44 43 41 40 40 40 38 37 36 37 35 34 35 38 38 37 34 33 32 31 30 29 28 33 34 33 33 33 29 29 35 37 35 34 33 35 36 35 34 32 32
44 45 45 45 44 43 42 42 41 42 42 41 41 41 40 37 36 35 34 35 34 34 34 34 36 33 36 38 38 38 37 37 32 34 36 37 39 37 38 34 33 33 32 31 31
45 44 43 44 42 41 40 39 39 41 39 39 40 39 39 38 38 36 36 36 35 36 36 38 39 36 40 42 41 40 40 37 37 36 38 37 36 32 34 37 35 33 33 35 36
48 46 47 47 44 43 41 39 39 41 43 40 42 42 41 41 39 36 36 37 38 40 40 43 42 42 41 40 38 38 35 35 37 33 37 41 42 35 35 37 36 35 37 38 39
51 50 50 49 47 45 43 42 41 42 47 46 43 45 42 41 44 41 42 43 42 42 43 44 38 36 34 32 35 37 35 37 38 41 43 43 46 44 37 37 37 39 39 39 40
55 55 53 53 50 49 48 47 46 46 51 50 48 46 44 43 43 42 40 39 40 37 38 37 34 34 34 33 35 35 36 37 40 42 46 44 43 45 43 39 40 42 42 40 40
65 60 58 57 57 54 53 52 52 51 58 54 50 45 44 43 44 41 37 37 37 37 37 38 38 34 33 33 34 38 37 41 45 45 48 38 42 53 47 44 45 44 44 41 44
66 63 65 65 58 61 58 57 58 57 54 54 52 48 45 44 41 39 38 36 36 36 36 37 38 38 36 37 40 43 45 45 48 46 47 44 47 49 45 46 47 46 47 52 58
60 63 64 63 62 58 64 59 61 55 54 53 50 48 45 40 39 40 40 39 38 37 38 39 39 40 42 41 41 45 45 46 46 47 45 47 53 53 55 55 55 55 58 62 64
56 59 58 54 55 55 61 66 56 50 48 46 45 44 43 40 42 42 42 42 42 41 39 41 42 40 40 39 40 41 43 42 46 48 52 55 58 56 56 55 57 59 61 61 59
49 48 48 47 47 51 60 58 51 53 51 47 43 43 45 44 45 44 44 46 43 43 45 47 47 40 41 42 43 43 45 49 52 53 57 57 57 57 53 53 53 55 57 58 59
49 61 49 51 43 54 54 53 56 48 51 46 45 46 47 45 45 48 49 50 47 46 47 48 48 47 46 45 45 46 47 48 48 53 56 57 58 56 54 55 57 58 59 61 62
59 57 59 60 58 61 64 57 60 51 50 48 47 48 51 53 53 53 52 51 51 51 48 46 53 56 51 53 50 46 45 47 51 54 56 60 61 60 58 59 59 59 61 62 65
64 66 63 61 67 68 66 63 61 56 55 54 53 54 55 55 58 58 57 54 52 49 50 48 56 59 59 55 52 51 48 49 53 56 62 62 62 57 58 59 61 62 64 65 66
65 69 71 71 75 70 68 69 69 66 62 58 59 60 59 61 62 63 61 57 56 55 55 55 59 62 59 53 53 53 53 54 57 62 62 62 58 60 63 63 63 64 65 68 68
67 70 72 72 71 68 63 72 69 65 67 65 64 66 65 66 68 69 67 59 56 56 54 54 55 55 54 53 54 57 59 63 66 63 64 61 63 62 63 64 66 68 68 66 66
71 68 68 70 73 70 72 71 72 72 69 68 69 70 71 69 70 57 55 57 58 60 53 54 59 57 59 55 58 60 62 65 64 63 67 69 69 65 65 65 66 64 64 65 64
61 61 64 65 59 63 61 66 71 73 75 74 69 63 64 64 59 53 51 52 60 62 57 57 55 55 58 59 61 67 66 62 64 64 66 70 66 64 64 64 63 63 63 64 65

GFSSW_500_spd_024.txt.gz
Wind_Speed
23 22 21 20 20 18 17 15 15 13 13 13 13 13 15 14 15 16 15 15 14 13 12 12 12 14 15 16 16 19 21 20 16 15 14 14 16 17 20 21 18 15 15 15 13
27 25 25 24 23 21 20 19 18 17 17 17 17 16 17 18 18 18 19 18 17 17 17 17 18 18 19 20 20 21 23 21 17 16 16 17 19 20 20 21 19 18 16 15 15
31 30 29 28 27 26 24 23 22 22 21 21 20 19 19 21 21 21 21 21 21 21 22 22 22 22 23 22 23 24 24 20 16 16 18 19 21 21 22 21 19 20 20 18 18
35 34 33 31 31 30 28 27 26 26 26 25 24 22 21 22 24 24 24 25 26 26 25 25 25 25 26 26 27 25 22 19 20 21 20 20 21 22 24 21 22 20 18 19 21
39 38 37 36 35 34 33 32 31 31 30 28 27 25 24 25 26 25 25 25 26 26 27 27 28 29 30 27 23 19 21 21 24 24 23 22 22 24 27 26 24 22 21 19 19
43 42 41 40 39 38 37 37 35 35 33 32 31 29 28 29 29 29 28 28 28 29 31 31 31 30 26 23 22 20 22 25 26 26 23 22 24 27 28 28 25 24 23 22 23
45 45 45 44 43 42 41 40 39 38 38 36 34 33 32 33 33 33 32 32 32 33 33 31 29 27 27 28 26 26 25 25 26 26 26 25 24 28 27 26 24 24 24 25 27
46 47 46 46 45 44 43 42 41 40 38 38 37 35 32 33 34 34 34 34 35 34 32 31 30 30 29 29 28 27 26 26 26 26 28 26 22 26 27 28 27 28 30 30 30
48 47 47 47 47 47 46 45 44 43 42 41 40 39 37 35 36 37 37 36 34 32 32 33 33 32 28 29 28 26 26 24 25 26 29 30 23 26 29 29 30 30 30 31 31
50 50 50 50 49 47 46 44 43 42 42 41 39 40 37 34 34 34 35 34 34 34 35 34 33 30 27 31 30 31 30 29 27 30 34 35 32 27 30 30 31 32 30 29 28
50 49 49 49 49 49 49 48 47 47 44 44 43 41 39 38 37 37 37 37 37 35 33 34 34 28 33 34 34 33 34 36 32 34 35 34 34 31 28 28 29 31 31 31 30
48 48 48 48 48 47 47 46 46 47 44 44 44 41 40 39 38 36 35 35 34 35 35 35 34 32 35 37 37 37 40 37 35 34 34 32 32 28 28 32 33 32 31 31 30
52 50 48 47 47 46 46 46 46 46 46 42 42 41 39 40 38 35 35 36 36 35 34 38 38 35 38 40 41 43 39 35 35 33 34 36 38 29 32 35 35 34 32 33 33
55 53 51 51 50 46 45 46 46 47 49 45 42 43 40 39 41 35 34 36 38 39 40 43 40 41 40 39 40 39 36 37 35 36 37 39 47 42 36 37 35 34 32 34 37
57 56 54 54 52 51 49 49 49 48 53 50 47 44 42 42 43 41 39 40 42 41 43 42 41 39 36 35 35 36 37 37 38 40 43 40 41 45 44 37 34 34 34 33 35
60 61 61 59 57 55 53 52 52 54 60 55 52 46 43 41 40 41 42 43 42 43 40 39 38 36 35 36 37 37 37 39 42 44 46 37 42 43 43 40 38 38 38 39 41
65 65 68 66 59 63 59 58 59 65 59 56 58 55 49 45 45 44 44 45 44 41 38 39 39 38 38 37 37 38 38 41 45 44 46 44 45 43 45 45 46 45 46 46 48
69 71 69 64 70 67 72 68 68 60 56 57 57 55 52 49 48 48 48 46 45 41 39 39 39 39 38 37 39 41 42 42 45 46 45 44 50 52 50 50 51 49 47 48 51
70 70 64 59 67 73 72 73 70 60 56 55 52 56 55 53 50 49 48 46 43 41 39 40 41 38 39 40 42 42 44 41 44 47 49 49 52 52 54 52 50 48 48 49 51
69 67 61 59 55 61 66 74 59 56 56 55 52 53 54 49 48 48 44 41 40 41 43 44 43 41 40 42 43 44 47 49 48 50 56 56 55 57 54 51 51 53 53 53 57
64 59 57 52 51 57 65 62 60 54 55 56 54 49 48 47 47 46 44 44 43 43 44 44 44 46 46 46 43 46 51 52 49 53 58 62 64 63 61 56 56 56 55 57 58
56 63 58 59 63 62 70 56 50 56 54 55 56 46 49 47 47 49 49 47 48 47 47 46 49 50 50 51 52 51 50 52 54 53 56 62 66 64 59 57 56 56 57 59 62
60 64 72 71 70 66 61 65 57 55 58 58 59 52 51 54 52 50 50 51 53 53 52 50 52 53 56 59 55 54 52 52 54 56 64 61 65 58 58 58 56 56 59 61 65
69 73 75 73 70 66 65 63 66 63 60 63 65 63 55 57 58 55 53 56 55 56 57 56 57 61 62 61 61 61 61 59 56 62 58 64 57 58 58 55 55 59 62 66 69
66 67 73 74 69 67 69 67 66 66 69 70 71 69 64 66 59 61 59 59 59 59 61 61 63 63 66 65 63 62 63 63 65 61 64 62 57 54 54 56 60 65 68 71 72
62 69 70 76 76 70 71 73 73 74 73 73 75 73 70 69 68 67 64 65 68 66 66 67 66 67 67 65 65 68 67 70 67 66 64 57 58 54 56 60 65 69 71 71 69
64 63 63 67 72 73 73 71 68 67 71 75 71 70 74 73 72 71 69 70 72 68 65 63 61 59 62 60 63 71 72 70 68 64 58 59 57 57 60 66 69 71 70 68 68

GFSSW_500_spd_027.txt.gz
Wind_Speed
23 21 20 19 19 18 17 16 15 13 11 10 9 9 9 9 10 12 13 13 12 12 12 12 12 11 12 13 14 16 16 17 17 14 11 11 12 13 14 13 12 10 10 9 7
26 24 23 22 22 22 20 18 17 16 15 15 13 13 13 14 14 15 15 16 16 16 15 15 16 16 18 18 18 18 19 19 18 14 10 12 14 15 15 14 14 10 10 10 9
29 28 27 26 25 25 24 22 21 20 20 19 17 17 17 17 17 18 18 19 19 19 19 19 20 21 21 21 21 21 22 22 17 12 13 15 16 16 16 15 15 15 12 11 11
33 32 31 30 29 28 28 27 26 24 23 23 21 21 20 20 21 19 20 22 22 23 23 23 24 23 22 23 24 24 22 18 15 15 16 16 16 16 17 16 17 16 14 15 15
37 36 35 34 33 33 32 31 30 29 27 26 26 25 24 24 24 22 22 24 24 25 24 23 24 24 25 26 24 20 17 17 17 18 18 17 17 17 19 18 18 16 14 14 15
41 39 39 38 37 37 36 35 34 32 32 31 31 29 28 28 28 27 25 26 26 26 26 25 26 27 27 26 21 18 22 21 22 21 19 18 19 20 18 18 17 16 16 16 17
45 44 43 42 41 39 39 38 38 37 36 36 35 34 32 33 32 31 30 30 29 30 30 30 29 29 27 25 23 23 22 23 25 23 21 21 21 23 20 20 19 19 19 20 21
47 47 46 45 44 43 43 42 42 41 40 39 39 38 35 33 32 32 31 32 32 32 32 32 32 30 26 26 26 25 23 22 22 23 24 22 23 24 24 23 22 22 22 24 25
50 49 48 48 47 45 45 45 45 44 43 42 41 40 38 36 36 35 35 34 33 34 34 34 32 29 27 28 27 25 21 19 21 23 25 26 23 27 27 27 26 25 25 25 24
52 50 49 48 48 47 46 47 47 46 45 45 45 45 42 39 37 36 36 36 35 35 33 32 32 29 27 29 27 25 24 23 22 26 29 30 27 25 29 30 28 26 25 25 25
52 53 53 52 51 49 49 48 48 48 46 44 45 44 42 40 38 37 38 36 35 35 33 34 32 26 30 31 30 29 29 27 25 30 32 31 29 23 28 26 27 26 26 27 29
52 53 54 54 52 51 51 51 50 51 49 49 50 48 47 45 43 40 39 39 37 35 35 32 30 30 31 32 31 30 32 30 31 34 34 30 29 24 24 24 26 25 28 32 32
55 54 55 54 51 50 49 49 49 50 50 45 46 46 44 43 42 40 37 36 34 34 33 35 34 30 31 32 33 34 34 35 38 36 33 31 30 26 25 25 26 28 30 32 32
58 57 57 57 55 49 46 48 48 48 51 48 44 46 43 41 41 35 35 34 34 33 35 37 32 33 35 36 37 40 37 38 38 36 34 34 36 27 25 26 26 29 30 31 33
62 60 59 57 56 52 50 52 51 50 53 48 47 44 43 43 40 37 35 36 37 37 38 37 37 36 37 36 38 38 37 37 38 38 38 34 37 37 31 25 29 30 31 32 32
72 65 63 61 58 55 55 55 55 52 60 54 49 46 43 40 38 39 38 36 36 39 41 41 41 39 38 36 37 37 38 40 41 42 42 35 38 44 39 35 32 30 28 28 34
77 71 68 64 60 59 59 59 60 63 61 58 56 53 48 45 42 42 44 43 42 44 42 42 44 43 40 37 37 38 40 42 44 43 43 40 42 40 40 38 35 34 35 38 43
77 76 72 68 65 65 65 64 68 62 61 59 60 59 53 47 46 45 46 46 45 46 47 45 43 41 39 37 39 40 41 42 42 44 45 41 40 41 40 41 41 40 43 44 46
75 81 77 75 72 69 69 74 63 62 61 59 55 59 62 57 52 51 49 49 48 47 48 47 46 42 41 41 42 42 42 39 43 45 43 42 41 41 43 46 48 45 46 50 49
64 80 76 75 75 80 75 81 66 66 63 65 63 61 55 59 59 54 47 48 49 48 43 45 45 43 43 43 45 45 43 45 45 45 45 47 46 48 50 52 50 48 48 51 54
54 72 63 71 74 79 86 75 69 66 63 61 62 61 59 56 55 55 50 49 47 44 43 44 46 46 47 47 45 46 47 47 46 49 49 51 54 57 56 54 53 52 52 53 55
55 66 54 58 72 76 76 62 59 59 61 54 54 54 54 54 56 55 51 46 44 44 44 44 49 50 50 50 48 50 50 49 50 49 50 55 59 61 56 55 54 54 53 56 61
59 64 64 65 70 68 62 60 60 61 54 54 56 53 53 54 52 49 49 49 47 44 47 44 49 51 52 52 52 49 49 49 49 51 55 58 62 58 60 57 54 53 61 65 65
60 69 73 72 72 70 73 66 66 63 63 57 57 59 53 52 53 53 51 50 49 50 51 50 51 55 55 54 52 52 53 54 57 57 58 62 59 61 56 55 57 62 65 67 64
65 71 72 71 73 70 70 71 68 65 61 62 63 60 57 59 57 55 52 54 54 54 57 58 56 61 60 57 57 58 59 61 63 61 62 57 61 56 53 53 57 61 64 65 65
71 69 71 69 68 73 74 69 71 67 65 69 70 65 61 63 59 59 60 60 62 61 60 64 61 65 64 64 66 64 64 67 69 62 61 59 62 56 57 58 60 66 67 65 65
67 73 69 70 71 72 73 71 69 69 69 69 67 64 65 64 64 66 69 67 65 66 66 65 66 64 67 68 71 72 71 68 63 60 58 61 57 61 60 61 64 63 65 67 70

GFSSW_500_spd_030.txt.gz
Wind_Speed
26 24 23 22 21 20 18 16 15 14 13 11 10 8 7 7 7 7 9 9 11 11 11 10 11 11 10 11 13 14 14 15 15 14 11 7 7 7 6 5 5 5 4 4 3
29 28 27 25 23 22 20 19 18 17 16 15 13 11 10 10 10 10 11 12 14 14 14 14 14 14 14 15 16 17 18 18 18 16 11 8 10 11 9 8 7 6 6 7 8
32 31 29 28 26 24 23 22 21 20 19 18 17 15 15 14 15 14 14 15 16 17 18 18 18 18 18 19 19 19 19 20 20 15 12 12 12 11 11 11 11 9 10 10 9
35 34 33 31 29 28 26 26 24 23 22 21 20 20 19 19 18 17 16 17 19 20 21 21 21 21 22 20 20 20 21 20 17 13 13 14 15 13 13 13 12 12 12 12 12
38 37 36 35 33 32 30 29 29 28 27 26 25 24 23 22 22 20 20 19 20 21 23 24 24 24 22 22 22 22 21 18 17 16 16 17 16 15 14 14 14 14 13 13 13
42 41 40 38 37 36 35 34 33 32 31 30 29 27 26 26 26 24 24 24 23 24 24 24 24 24 23 23 23 22 20 20 21 19 18 19 19 17 16 16 15 14 13 13 14
44 43 43 42 41 40 38 38 37 36 35 34 33 31 30 31 30 29 28 29 28 28 27 27 28 28 27 27 25 22 22 23 23 21 19 19 19 20 18 19 18 16 16 17 18
49 48 46 45 44 43 42 41 41 40 39 38 37 36 35 34 34 32 32 30 29 29 30 30 30 30 29 29 27 24 23 24 23 22 21 19 19 20 21 21 20 19 19 19 22
50 49 49 49 48 47 46 45 44 43 42 42 41 41 39 37 37 36 33 33 33 32 32 31 31 31 31 30 29 27 26 23 23 23 22 21 22 23 24 24 24 23 22 24 24
51 50 51 51 49 49 49 48 47 47 46 46 45 45 42 39 39 38 38 37 36 35 34 34 35 33 29 31 31 29 25 22 24 26 27 26 24 24 26 26 25 26 26 26 24
54 52 52 51 51 51 52 51 51 50 49 47 48 47 46 43 42 42 40 39 37 36 34 35 35 28 32 34 31 28 27 25 27 32 31 30 27 27 28 26 26 27 27 26 23
56 56 56 55 53 52 52 52 51 51 51 50 51 51 48 46 44 43 42 42 41 39 38 37 35 34 34 32 31 30 31 27 30 34 34 32 30 27 30 28 28 27 27 26 25
59 60 55 56 57 55 54 54 54 54 57 53 54 54 52 52 50 48 46 44 42 41 38 39 36 33 33 33 33 33 33 30 34 35 35 34 33 29 30 30 30 30 30 30 29
62 61 62 60 57 52 51 52 53 54 57 56 51 53 50 49 47 43 41 39 39 36 36 38 35 35 35 35 34 37 34 36 37 38 38 35 38 28 30 31 31 30 31 30 29
68 65 64 62 62 56 51 55 56 53 59 57 55 53 50 49 45 39 37 37 36 36 36 36 36 36 36 34 38 39 37 39 39 40 41 38 40 35 31 31 31 31 30 31 30
72 71 71 66 63 58 59 58 58 57 64 61 54 49 45 43 43 41 38 38 37 37 37 36 36 37 38 39 40 41 39 40 42 42 44 35 39 44 33 30 31 31 29 29 30
64 68 68 71 67 64 63 62 62 63 60 59 55 52 47 43 40 38 34 33 33 35 35 36 38 40 41 41 42 43 41 43 44 44 43 39 41 42 40 34 30 28 25 26 29
55 64 61 62 69 74 70 70 72 62 61 60 59 55 52 45 46 45 45 44 43 42 40 44 48 46 43 43 44 43 44 44 45 45 45 45 45 41 38 36 35 30 28 28 32
59 52 60 67 60 72 82 81 76 69 67 65 63 59 55 53 50 50 48 49 46 42 45 47 52 52 48 45 46 45 47 40 44 47 48 48 45 43 40 38 36 34 34 36 39
56 59 59 60 62 67 90 85 76 76 71 69 64 63 59 56 55 55 52 48 47 52 49 50 51 53 51 47 48 48 43 46 47 48 49 50 49 46 43 42 42 40 38 39 43
58 63 54 54 59 75 87 71 77 79 76 70 67 67 63 62 59 57 57 59 54 46 52 53 48 49 52 50 44 45 47 47 46 49 52 51 50 49 48 47 43 42 40 44 50
63 62 59 60 66 77 81 67 81 76 74 71 69 69 67 66 62 61 59 57 55 53 51 47 49 51 49 47 46 48 49 51 52 50 50 51 51 53 51 48 47 46 47 51 53
66 64 65 61 65 76 66 78 77 75 75 77 72 68 69 67 66 62 59 51 48 50 50 48 51 51 51 51 51 51 49 48 49 50 52 54 52 54 53 51 51 52 53 53 54
66 72 69 68 64 64 65 65 75 73 74 73 68 66 66 65 61 59 56 54 47 46 45 47 50 54 53 46 46 49 48 50 50 55 53 53 54 56 55 56 56 57 58 57 56
63 67 76 70 77 65 67 63 64 71 64 63 62 59 60 60 60 56 53 48 47 42 44 49 51 50 51 50 52 55 56 55 60 56 61 56 57 57 59 58 59 60 62 60 61
67 66 62 62 68 76 70 68 67 64 67 61 64 58 63 63 62 58 51 53 52 52 53 53 52 51 52 57 58 59 61 63 64 66 65 65 61 58 57 59 60 60 62 61 61
64 59 62 65 69 69 77 70 69 70 68 67 65 70 67 60 57 55 61 59 58 59 57 56 56 57 59 58 62 68 64 65 67 69 69 68 59 59 59 60 60 61 60 59 63

GFSSW_500_spd_033.txt.gz
Wind_Speed
30 29 29 28 26 25 23 21 19 18 17 15 13 12 10 8 8 7 8 9 11 11 11 11 11 11 10 10 11 12 13 13 13 14 13 10 9 8 7 8 8 5 6 6 7
32 31 30 29 28 27 26 25 23 21 19 17 16 14 12 11 10 9 10 11 12 13 14 14 14 14 13 14 15 16 17 16 15 16 15 11 11 10 10 9 9 10 8 9 9
35 34 33 32 30 29 28 26 25 24 22 21 19 18 16 14 12 13 13 14 14 15 16 17 17 18 18 17 18 19 19 18 18 17 15 12 13 12 12 11 12 11 12 11 11
38 37 35 34 33 32 30 29 27 25 24 24 23 22 20 18 16 16 16 16 16 18 18 19 20 21 21 21 21 21 20 21 21 18 14 13 15 14 14 14 14 13 13 13 12
41 40 39 38 36 35 33 32 30 29 28 27 26 25 23 23 21 19 19 19 18 18 19 22 23 24 25 24 22 22 22 22 21 18 17 16 17 16 17 16 16 15 14 14 14
43 43 42 41 39 38 36 35 33 32 31 31 30 28 27 26 25 23 22 22 22 22 22 22 24 24 25 24 24 24 23 23 21 20 20 19 19 18 20 18 17 16 17 16 15
45 45 44 43 42 41 39 39 37 36 35 34 34 33 32 30 29 27 26 26 26 25 26 26 26 27 27 27 27 27 26 25 25 24 22 23 21 20 19 19 18 18 19 19 19
48 47 47 47 46 44 43 43 41 40 39 38 38 37 35 34 33 32 31 30 29 30 29 28 29 29 29 29 29 29 28 28 27 27 25 24 22 21 21 20 19 19 20 20 21
53 51 49 49 48 47 46 46 45 44 43 42 41 41 39 37 36 36 35 34 34 32 30 30 31 31 30 30 32 30 30 30 29 29 28 26 24 21 24 22 22 23 23 23 23
56 55 54 53 52 50 49 48 47 47 47 46 45 44 43 39 40 40 40 38 37 35 34 34 34 34 32 34 32 35 32 30 30 30 30 28 26 24 27 27 26 26 26 26 26
57 57 57 57 55 53 52 52 52 52 50 48 49 48 48 45 44 44 44 42 39 38 38 37 38 32 33 36 35 33 33 31 33 32 34 32 31 30 28 28 29 30 28 27 26
60 58 59 58 59 56 54 54 53 54 53 52 53 52 51 49 48 46 46 46 43 40 40 37 38 34 37 37 36 37 37 32 33 35 39 36 34 32 33 27 31 31 31 30 30
68 62 63 60 60 59 56 55 55 55 58 55 56 55 53 52 51 49 48 47 45 46 42 45 44 39 38 40 39 37 37 34 37 38 40 41 37 35 32 33 30 33 32 32 33
65 72 65 69 65 60 57 55 55 56 60 63 58 60 58 56 59 55 52 50 49 47 45 46 45 36 38 39 37 38 39 38 39 41 40 44 43 37 34 33 33 33 33 34 34
60 62 70 70 70 65 57 56 58 56 66 68 68 64 59 57 57 52 47 45 44 42 42 43 40 37 37 35 38 41 40 39 41 43 46 45 46 37 34 33 32 33 34 34 35
62 59 53 61 66 66 66 64 61 60 69 69 66 60 58 57 57 55 48 47 46 42 41 42 39 36 36 35 40 41 41 42 44 47 53 44 45 42 40 31 35 34 35 34 36
66 64 52 57 61 62 61 69 68 72 68 67 66 65 58 54 50 46 44 42 42 43 43 41 40 39 38 38 37 38 38 42 48 52 51 49 45 44 43 35 34 34 34 35 35
69 68 61 64 62 61 73 69 78 64 64 66 68 66 61 53 52 51 46 41 39 37 38 38 37 37 37 40 46 47 46 45 50 52 49 50 50 45 40 40 35 34 35 35 35
67 64 71 65 57 62 66 70 72 58 72 72 70 67 64 58 53 49 46 45 43 41 43 45 46 45 43 46 47 50 53 46 50 51 55 53 49 47 44 39 38 35 34 34 33
66 68 73 65 54 66 66 73 74 64 73 78 75 72 68 64 60 54 50 48 47 44 43 49 49 50 53 52 53 51 53 52 51 53 55 53 51 46 43 43 41 37 36 35 37
65 63 68 63 69 73 76 65 56 62 64 77 76 72 69 68 66 60 56 53 52 47 50 53 53 55 55 56 52 51 49 50 51 52 53 54 50 47 47 46 43 42 40 39 39
67 75 69 60 67 69 68 55 63 62 66 67 72 71 73 73 70 65 61 59 56 55 57 53 55 55 58 57 53 56 52 51 53 54 52 51 46 51 51 49 47 44 43 42 45
75 73 72 64 71 71 63 62 63 62 61 68 69 71 76 74 72 67 64 61 62 60 60 56 55 58 58 60 58 55 47 47 46 50 47 52 49 51 51 50 49 46 45 46 51
72 75 69 70 70 72 67 64 68 61 61 58 64 68 68 68 69 68 66 68 64 61 60 59 65 63 59 53 54 53 50 48 47 48 47 49 47 48 51 51 49 49 51 55 56
75 77 73 72 78 74 70 72 66 63 59 58 65 65 64 68 71 68 66 71 70 67 66 66 64 58 56 49 50 53 51 50 52 48 54 47 51 50 52 55 54 55 59 60 62
73 73 77 71 67 74 77 73 73 63 67 65 66 61 70 72 66 65 63 64 68 62 58 55 54 50 50 48 48 51 53 52 51 53 59 55 56 58 56 56 61 62 65 66 66
75 75 79 75 74 74 76 75 74 70 72 68 61 64 71 60 60 62 66 64 61 55 58 59 60 57 52 51 55 62 49 52 53 55 53 61 55 58 61 59 60 64 69 69 68

GFSSW_500_spd_036.txt.gz
Wind_Speed
32 31 31 30 28 27 25 23 22 20 19 17 16 15 14 13 11 10 9 9 10 11 11 11 11 11 10 10 9 9 10 11 11 11 11 13 9 9 10 11 8 7 6 7 9
34 33 32 31 30 29 28 26 23 22 20 20 18 17 15 14 12 10 10 10 11 12 12 13 13 13 13 12 13 13 14 13 14 13 14 14 11 10 11 13 13 11 9 9 9
36 35 34 33 33 32 31 29 27 25 24 22 21 20 18 16 14 12 13 12 12 13 14 15 15 16 16 16 17 16 17 17 15 15 16 14 12 13 12 12 12 14 13 11 11
38 38 37 36 35 34 33 31 30 29 28 26 24 23 22 20 18 16 15 15 15 14 16 16 17 18 19 18 20 20 19 18 17 18 17 14 13 16 14 13 15 14 16 14 13
39 39 39 38 37 36 35 34 33 32 30 29 28 27 26 23 21 20 18 16 16 16 16 16 18 20 21 21 22 23 21 20 19 19 17 15 16 16 17 16 17 16 16 17 15
42 41 41 41 40 39 38 37 36 35 33 32 31 30 29 27 25 23 22 20 19 19 19 19 19 20 21 22 23 23 23 23 23 22 18 19 19 16 22 18 19 18 17 17 16
45 45 44 43 43 42 42 41 39 38 37 35 34 33 31 30 28 27 26 25 23 23 22 23 23 24 23 24 24 26 26 26 26 25 22 23 21 19 22 21 19 19 18 18 18
47 47 47 46 45 45 44 44 42 41 40 38 37 36 35 33 32 30 30 29 28 26 25 26 26 27 26 26 27 29 28 29 27 27 26 26 22 22 23 22 21 19 18 19 20
50 50 50 49 49 48 46 46 45 44 43 42 41 40 38 36 35 34 33 32 32 30 30 29 29 28 27 28 28 28 28 30 32 31 28 30 27 25 24 25 21 21 20 21 23
54 53 53 52 52 51 49 49 48 48 47 46 45 43 42 38 39 38 37 36 36 36 35 33 33 31 29 31 30 35 32 33 34 32 30 32 29 28 26 26 23 23 22 24 24
56 55 56 56 55 54 54 53 52 52 51 48 49 48 46 43 42 41 41 41 40 39 38 39 38 32 33 36 34 37 33 32 29 38 35 35 33 31 30 29 26 26 26 26 28
60 59 57 58 58 58 57 56 55 55 54 52 53 51 49 47 45 45 45 45 45 42 43 41 38 35 38 37 35 36 35 34 34 42 40 36 37 33 35 30 31 31 30 28 29
65 63 64 61 60 59 59 59 56 58 61 56 55 56 53 52 51 49 49 48 47 46 43 44 41 38 41 40 42 39 39 37 40 44 42 40 39 35 35 36 32 32 36 33 30
57 55 70 62 68 64 60 58 57 59 63 63 60 59 59 56 57 54 49 51 50 45 44 49 44 45 41 42 41 42 41 41 39 42 42 41 47 37 34 35 37 38 39 38 32
60 57 57 63 74 67 64 60 59 59 65 68 67 66 61 59 59 58 53 52 50 47 50 51 45 44 41 38 42 42 39 40 38 40 46 44 50 37 35 35 34 38 40 40 34
66 61 59 54 54 64 73 66 68 65 74 74 72 68 66 64 64 63 57 54 52 52 51 48 46 42 39 37 39 40 38 40 42 43 50 42 43 50 33 35 37 36 38 37 35
71 67 63 58 53 50 65 69 65 71 72 74 74 74 71 68 66 62 60 56 53 52 52 48 49 46 42 39 38 40 39 43 46 48 48 45 46 46 41 38 34 36 36 36 38
70 70 65 64 54 57 63 63 74 68 66 58 66 71 72 69 64 59 57 54 48 43 41 42 42 41 40 39 41 45 42 45 46 49 51 51 52 45 41 42 37 35 33 35 38
70 70 69 67 66 67 64 72 60 58 57 60 58 60 64 63 60 57 57 53 51 50 47 42 41 41 41 39 42 44 46 40 48 50 53 54 54 50 45 37 38 36 35 34 34
67 70 71 73 67 72 76 70 60 53 59 67 68 63 62 63 65 65 60 50 49 45 43 47 48 46 41 43 48 49 49 50 49 51 56 54 53 51 48 42 39 37 34 30 30
67 71 68 70 70 71 80 71 58 58 55 60 67 69 65 68 66 65 62 57 53 50 47 44 46 50 49 50 46 47 50 50 50 56 60 59 51 50 48 47 43 36 34 32 31
69 72 66 70 70 79 77 72 69 66 63 62 57 52 62 65 71 68 62 64 60 56 55 52 53 56 54 53 52 53 54 50 52 54 53 55 47 46 46 45 40 37 36 34 34
71 73 72 72 80 79 70 73 74 64 60 62 60 58 57 62 62 67 60 59 64 61 59 58 60 56 59 57 59 55 52 50 50 51 54 54 49 47 43 40 41 39 38 38 39
68 70 75 73 74 79 80 73 73 75 69 65 64 56 56 60 61 63 60 59 59 61 63 65 64 62 61 56 57 59 56 58 56 55 54 51 48 45 42 43 41 41 40 42 44
70 71 74 83 54 62 77 73 68 79 73 68 65 60 59 59 57 57 59 63 64 60 65 70 68 64 61 57 58 63 61 59 60 52 54 45 50 46 46 44 45 47 46 45 46
72 71 70 78 82 70 56 72 84 77 66 68 66 56 59 62 55 49 51 57 58 55 56 62 60 61 61 60 61 60 52 60 61 58 55 48 50 45 42 45 49 49 49 50 52
75 74 73 73 81 77 44 60 55 72 69 70 63 63 69 55 50 48 50 51 55 54 57 60 59 58 62 58 59 60 53 49 53 52 49 52 46 47 47 48 47 49 51 55 56

GFSSW_500_spd_042.txt.gz
Wind_Speed
40 37 36 34 33 31 30 28 27 25 24 23 22 21 20 19 19 18 18 18 18 18 19 17 16 15 13 12 10 8 6 6 5 5 7 8 7 8 8 9 6 8 7 7 6
43 41 38 36 36 34 32 31 29 27 26 25 24 23 22 21 20 19 19 18 18 17 17 16 15 15 14 13 12 10 9 10 10 10 7 10 9 10 10 10 8 9 10 10 10
43 42 41 39 38 37 36 34 32 30 29 28 26 25 24 23 21 20 19 18 18 17 16 15 14 15 15 14 14 13 12 13 13 12 10 11 10 12 10 10 13 11 9 11 12
42 42 41 41 41 40 39 37 35 33 32 30 29 28 26 25 24 22 21 19 18 17 16 15 15 17 16 17 16 15 15 15 16 14 13 12 12 12 10 12 16 15 11 12 12
41 41 42 42 42 42 42 40 38 36 35 32 32 31 30 29 27 25 23 21 20 18 16 16 18 17 16 18 17 17 17 16 17 17 15 15 15 13 12 16 16 17 17 14 14
41 41 42 43 44 44 44 42 40 39 37 36 35 34 33 32 30 28 26 24 22 20 19 18 17 16 15 16 17 17 17 17 18 18 18 18 18 17 17 17 17 17 18 18 16
40 41 42 43 44 45 46 44 43 42 41 40 39 37 36 34 32 31 29 27 25 23 22 20 19 18 16 17 17 18 18 19 20 20 20 21 18 19 20 19 18 20 20 20 18
42 42 42 43 44 46 46 46 45 45 44 43 42 40 39 37 35 33 32 31 29 28 26 24 22 20 19 18 18 19 20 19 20 20 20 22 16 22 22 23 22 21 21 21 20
44 44 44 44 45 46 47 47 48 48 47 46 45 43 41 39 37 37 36 34 33 31 29 28 26 25 23 21 21 23 23 22 23 23 23 25 20 25 26 26 25 24 23 23 21
47 48 46 46 46 47 47 49 49 50 50 49 48 47 44 41 40 40 39 38 37 35 33 31 31 28 25 26 26 27 26 25 26 27 29 29 26 28 28 28 26 25 26 26 25
49 50 50 48 48 48 48 49 50 51 52 51 51 50 47 45 44 43 42 41 40 38 37 37 34 28 29 31 30 29 29 29 28 32 34 33 30 30 32 30 27 27 28 28 28
56 62 51 52 51 50 49 50 51 53 54 53 54 52 50 48 47 46 44 44 43 42 41 38 35 33 33 32 33 32 33 30 33 36 41 39 39 37 37 34 31 30 28 27 31
52 52 63 52 55 53 52 52 53 54 58 54 55 55 53 52 50 49 47 47 45 44 43 41 39 37 36 35 35 34 35 34 37 41 44 45 43 39 34 35 34 32 30 29 29
48 47 44 52 59 53 51 54 55 56 59 59 54 57 55 54 55 52 51 50 48 45 45 46 41 40 38 38 38 38 36 38 40 45 48 45 49 38 33 30 32 29 30 30 31
55 51 49 49 57 60 57 56 53 57 62 62 60 58 57 58 57 52 51 51 51 47 47 48 45 43 43 39 39 38 37 42 44 46 50 44 47 39 29 26 25 30 31 31 34
60 59 59 60 52 52 52 56 57 54 64 66 63 61 61 59 60 58 54 54 53 51 50 49 49 45 43 41 40 40 45 46 47 51 57 42 47 47 27 23 22 28 32 34 35
65 63 63 62 57 55 55 52 59 64 61 69 68 65 65 61 59 58 56 55 53 52 51 50 49 48 46 45 44 43 42 47 55 57 59 49 51 48 33 26 27 27 31 33 34
69 68 65 62 61 62 61 61 58 61 70 68 67 73 76 71 67 64 62 59 56 55 54 53 53 49 50 48 45 47 50 53 52 50 51 51 52 44 42 32 32 33 31 32 34
71 72 69 66 65 65 66 69 72 55 46 50 55 56 55 59 67 67 66 65 62 58 56 59 62 60 56 56 48 47 48 39 45 51 55 46 37 34 35 34 31 30 31 34 35
76 74 71 69 68 67 72 74 69 62 57 56 60 58 60 56 54 60 63 64 55 51 50 51 54 59 57 54 56 54 48 49 49 54 54 48 40 36 37 36 33 34 32 32 36
75 78 72 71 71 69 74 73 70 68 66 68 63 62 53 53 53 56 54 56 54 49 43 46 46 47 45 49 47 45 44 47 49 52 54 51 43 42 41 36 34 34 31 27 26
75 75 74 73 74 70 67 68 69 71 75 74 72 65 63 60 56 52 55 48 49 45 52 49 49 52 50 48 48 49 51 51 50 51 49 51 45 45 45 38 35 38 38 37 33
74 73 72 71 74 74 64 66 74 73 74 76 70 67 65 68 62 60 53 50 52 49 46 46 50 53 58 59 59 56 51 47 50 48 51 54 47 48 46 39 39 38 41 40 41
76 76 76 74 68 69 68 67 69 74 74 73 72 72 62 59 58 61 61 56 50 42 40 47 49 48 50 48 49 51 50 49 50 54 55 54 48 49 49 44 41 39 44 44 42
81 80 76 79 78 66 63 67 72 70 71 76 76 76 73 70 59 57 55 56 58 52 47 58 54 49 43 46 47 51 51 50 54 54 60 51 52 43 46 50 41 46 48 46 46
86 82 79 78 78 73 69 66 45 67 73 74 75 76 74 74 71 55 55 60 58 61 60 53 49 49 52 43 47 48 52 55 57 56 59 56 54 51 45 46 49 47 47 49 50
86 84 83 82 79 79 70 74 65 59 57 70 58 62 76 74 69 67 65 58 56 53 62 60 54 51 54 48 48 51 45 51 53 53 53 59 53 46 49 46 43 44 46 49 51

GFSSW_500_spd_045.txt.gz
Wind_Speed
45 43 39 37 35 34 31 29 27 26 24 23 23 22 22 22 20 19 20 20 21 22 21 20 19 17 16 15 13 11 8 6 6 7 8 7 6 8 8 7 8 7 7 6 5
46 45 42 39 38 36 35 33 30 28 26 25 25 24 23 22 21 21 22 22 21 21 22 20 19 17 17 16 14 12 11 10 9 9 9 10 9 9 9 9 9 10 9 9 9
48 46 43 42 40 38 37 36 33 31 28 27 27 25 25 24 24 23 24 23 23 22 22 21 19 18 18 17 16 15 15 14 12 11 11 12 10 11 11 10 11 11 10 11 11
48 48 46 43 41 40 39 38 36 33 32 31 30 28 27 27 28 27 26 25 24 23 21 20 20 19 19 18 18 17 17 16 15 15 13 13 13 11 11 12 14 13 12 13 13
47 47 47 46 44 42 40 39 39 37 36 34 32 30 30 30 29 28 27 26 25 24 22 22 21 20 19 19 18 18 18 17 17 17 16 14 14 15 14 14 15 15 14 14 15
43 47 48 48 47 46 44 43 42 41 40 37 34 34 33 34 33 31 29 28 26 25 23 22 20 19 19 20 19 18 18 17 18 18 18 17 16 16 18 17 15 16 18 17 16
39 42 47 48 48 48 48 47 46 44 42 39 37 37 36 37 35 34 32 30 28 27 26 24 22 21 19 18 17 16 17 17 19 20 20 19 16 19 18 18 16 18 18 20 19
39 40 42 46 48 48 49 49 48 47 45 43 41 40 40 40 38 36 35 33 32 30 28 26 25 23 21 20 19 19 20 18 19 18 17 18 14 20 21 21 21 21 22 22 21
42 40 41 43 45 47 49 49 50 49 48 47 45 45 44 43 41 39 38 36 35 33 32 30 28 26 24 23 22 23 22 20 19 19 21 22 17 23 23 25 24 24 24 23 23
46 44 42 42 44 44 46 49 50 51 51 50 49 48 47 45 44 42 41 40 38 38 36 34 32 30 26 28 28 27 25 23 22 23 26 25 21 26 27 27 27 25 26 25 25
46 45 46 45 44 45 46 46 48 51 52 52 51 51 49 49 48 46 44 43 42 41 39 38 36 30 31 32 30 30 29 27 26 29 30 28 26 28 32 31 31 31 30 28 27
55 52 50 47 49 46 47 47 48 51 52 53 54 53 53 51 50 48 47 45 44 44 44 42 37 34 35 33 33 33 33 31 31 33 37 31 31 29 35 36 34 36 36 32 33
45 51 58 60 51 52 50 50 50 51 55 52 54 55 54 54 52 50 49 48 47 46 44 43 40 38 38 35 35 36 36 35 36 36 39 39 42 37 34 35 34 32 33 36 34
52 52 51 53 63 55 49 53 54 54 55 55 52 55 55 54 55 52 51 51 49 46 45 45 42 40 38 38 37 38 37 39 39 41 42 42 54 44 37 32 33 32 33 35 35
54 52 50 49 52 57 60 60 59 55 60 60 57 55 56 56 55 52 51 51 50 48 47 46 45 43 42 39 39 40 39 40 41 42 45 49 55 51 40 32 24 30 35 34 34
57 55 54 51 46 48 50 46 65 60 61 62 59 58 57 55 57 57 53 52 51 50 50 49 48 46 44 41 40 41 42 41 42 44 56 52 54 55 48 39 29 27 31 33 33
61 60 59 57 53 55 41 39 55 67 63 60 60 59 58 58 58 57 56 54 52 52 52 50 49 47 45 45 43 42 42 44 48 54 59 58 62 51 48 33 32 32 31 33 32
66 64 62 60 61 60 60 57 46 46 62 60 61 62 63 59 59 59 58 56 56 55 53 51 52 48 45 44 43 42 44 46 53 57 62 64 56 46 39 30 26 31 31 32 34
70 70 67 65 64 64 68 72 69 51 50 43 61 69 68 65 60 59 61 60 56 55 55 56 56 54 51 50 47 50 53 52 51 60 63 59 50 41 35 31 25 23 26 28 32
65 71 70 69 69 68 69 72 72 65 61 58 57 55 56 69 68 66 62 64 66 64 63 60 62 61 60 59 61 62 61 61 61 61 64 59 46 37 35 35 28 23 26 28 30
62 66 67 71 72 73 70 70 71 70 67 67 63 63 61 56 53 59 66 65 58 53 46 52 60 66 65 66 62 54 55 56 56 57 59 56 42 40 41 41 38 30 28 29 30
64 64 65 66 73 78 77 72 73 69 70 68 67 65 60 59 61 56 49 53 53 47 48 43 50 56 58 54 53 52 51 50 52 51 50 49 41 39 45 40 42 36 31 37 38
67 66 64 67 72 75 79 75 76 71 70 70 69 71 65 67 67 63 56 51 51 50 46 43 46 51 56 58 58 54 50 48 47 47 47 52 38 43 50 47 45 43 38 39 42
69 71 70 73 71 69 72 77 78 78 76 70 69 71 72 71 70 68 60 60 59 57 52 54 52 50 53 51 51 52 51 51 51 57 54 56 47 50 52 50 47 49 43 42 44
68 71 72 76 73 72 75 68 75 78 77 78 75 74 75 76 75 72 64 64 65 60 54 60 56 56 47 46 48 51 51 48 52 58 57 59 59 52 51 53 59 55 44 43 47
67 66 71 76 77 78 76 77 71 66 76 78 81 78 76 79 73 71 70 68 63 60 51 54 57 53 56 46 47 55 51 52 53 54 58 51 53 51 52 51 54 55 52 51 53
63 64 71 75 78 82 80 75 75 73 63 72 74 72 74 77 75 70 72 72 70 70 65 58 59 50 52 56 55 62 50 52 54 48 50 55 47 45 48 52 53 54 57 58 58

GFSSW_500_spd_048.txt.gz
Wind_Speed
45 44 42 40 37 34 31 29 27 26 25 24 23 21 21 21 21 21 20 20 21 22 22 22 22 20 16 14 12 9 7 6 6 5 5 7 8 7 7 7 7 6 5 4 5
46 45 44 41 39 37 34 31 29 28 27 25 24 23 23 23 22 23 23 23 22 23 23 23 23 21 18 16 14 12 11 10 10 10 9 8 8 8 8 9 9 8 7 7 8
49 47 46 44 41 39 37 35 33 32 29 27 27 25 24 24 25 24 23 23 24 23 24 24 24 21 19 18 17 16 14 14 13 13 13 12 11 10 8 9 10 10 9 10 10
50 50 49 47 45 42 39 38 37 36 34 31 29 28 26 26 25 24 24 25 25 24 26 26 25 22 21 20 19 18 17 16 15 14 14 14 12 12 12 11 12 11 11 12 12
50 51 50 49 47 45 41 40 38 38 37 34 32 30 29 28 27 26 26 26 26 26 27 27 25 23 22 21 21 20 18 18 17 16 16 15 14 13 15 15 14 12 12 13 13
45 49 50 49 48 46 44 42 41 41 41 38 35 32 31 31 29 28 28 28 29 29 28 27 25 24 22 21 20 20 20 19 19 18 16 16 14 15 17 16 16 14 15 15 15
43 46 49 51 49 48 47 45 43 43 43 41 38 36 35 34 32 32 32 31 31 30 29 28 26 24 22 21 20 20 20 19 18 17 16 16 13 17 15 15 16 16 17 18 18
41 44 46 49 51 49 49 47 45 44 44 44 42 40 39 37 35 35 35 35 33 32 31 29 28 26 24 22 21 20 20 20 19 17 16 15 10 16 16 15 17 19 20 20 21
41 40 41 45 48 49 49 49 48 47 46 45 45 44 42 40 38 39 39 38 36 35 34 33 31 28 26 24 23 24 22 20 19 20 21 18 14 21 20 17 17 20 22 23 23
43 42 41 41 43 45 47 48 49 49 49 48 47 46 45 43 42 43 43 41 40 39 37 35 33 31 27 27 28 25 24 23 23 24 25 23 19 23 24 20 20 22 25 26 26
51 46 43 43 44 43 43 45 47 50 51 50 50 50 47 47 46 46 46 44 43 43 41 39 37 32 31 34 29 28 28 27 27 30 31 29 24 24 28 22 22 25 30 31 29
52 55 51 48 45 44 43 43 45 48 50 52 53 51 51 49 48 48 48 47 46 45 44 43 40 35 36 35 34 32 32 30 31 34 37 34 31 26 28 27 25 29 31 32 33
44 42 46 52 50 48 45 46 45 48 50 50 52 53 51 51 50 50 50 50 49 48 47 46 42 39 40 38 37 36 35 35 36 36 38 40 41 32 28 31 30 31 33 34 35
47 45 40 46 52 53 49 49 47 48 52 50 49 51 52 52 53 52 53 54 53 50 49 48 44 40 38 40 40 39 38 39 38 39 40 43 53 40 34 33 34 34 37 38 37
53 49 48 45 51 50 48 53 51 50 55 56 51 51 52 52 53 51 53 54 53 51 50 48 45 43 42 41 41 41 40 40 41 41 42 49 50 50 41 37 35 37 39 42 41
55 54 52 52 51 48 50 53 52 61 61 57 55 53 52 52 55 53 52 53 54 53 52 51 50 46 44 42 41 42 43 42 42 42 50 52 48 50 45 43 39 42 40 37 40
60 56 55 54 52 52 52 47 53 45 55 65 60 52 53 53 54 54 53 53 53 53 54 52 51 48 46 46 44 42 41 42 45 47 53 55 57 49 44 49 45 42 32 36 39
63 60 60 57 56 55 54 59 51 55 54 51 58 65 62 55 56 55 56 55 55 55 55 53 54 50 48 47 47 46 44 45 49 51 53 59 59 53 48 46 50 41 29 30 34
60 64 64 62 61 61 63 65 64 55 46 47 51 52 59 67 59 54 57 56 55 55 55 54 53 53 49 47 46 47 49 47 49 53 57 61 57 57 51 49 49 49 34 31 27
52 58 64 63 65 63 62 69 64 61 59 51 48 49 41 57 61 60 60 57 52 52 53 52 55 55 53 53 53 53 53 53 55 56 59 62 63 58 55 55 53 45 38 31 30
50 51 55 58 66 68 67 67 66 65 67 65 64 59 51 46 49 54 59 59 58 57 52 54 58 62 62 62 61 60 58 59 59 60 62 67 61 57 60 58 54 42 33 27 33
55 53 55 56 63 70 74 71 71 70 70 71 71 66 65 60 61 58 52 54 52 54 60 57 57 60 62 61 61 64 66 69 69 66 63 64 59 51 51 52 44 37 35 33 31
59 59 60 61 64 65 67 70 74 75 73 70 69 69 67 69 70 62 57 51 55 52 49 45 48 51 56 64 72 68 62 60 58 56 59 59 53 47 46 44 41 43 46 48 45
62 64 64 68 65 63 64 68 67 74 76 75 71 67 69 71 72 70 65 60 59 56 54 55 58 54 52 49 51 50 52 53 54 55 60 58 49 44 46 45 47 52 55 56 53
65 66 66 68 68 67 67 68 67 68 74 76 78 77 73 72 70 72 72 71 69 62 61 64 64 59 55 53 51 52 51 49 55 54 61 55 59 43 48 50 53 55 57 57 54
66 66 68 68 69 70 71 71 70 66 68 72 76 79 77 77 72 73 69 75 73 71 67 60 61 61 63 59 58 59 58 58 57 56 62 55 59 47 44 48 53 53 56 58 61
63 65 67 69 70 73 71 70 71 70 72 70 70 72 77 78 76 74 72 76 77 72 69 66 62 59 62 59 60 65 57 58 61 57 57 61 61 50 50 46 45 51 53 51 55

GFSSW_500_spd_051.txt.gz
Wind_Speed
44 42 41 40 38 36 33 31 29 27 25 24 24 23 24 24 24 22 20 20 21 20 19 19 20 20 19 16 13 11 8 6 3 1 2 4 4 4 5 5 4 4 5 4 4
46 46 44 42 40 38 35 33 32 29 27 26 26 26 26 25 23 21 20 21 20 20 21 22 23 23 21 18 16 13 11 8 6 5 4 5 6 6 6 6 6 6 6 7 6
47 48 47 46 43 41 39 36 34 32 30 28 28 28 27 25 23 23 22 21 21 21 23 23 24 24 22 20 19 16 13 11 10 9 8 8 8 8 7 8 8 8 7 8 8
49 49 49 48 47 44 42 39 37 35 32 30 30 28 27 26 24 23 23 23 23 24 25 25 26 25 23 21 21 18 15 14 13 12 12 11 10 9 9 9 10 10 8 9 10
46 50 50 50 49 47 44 42 40 37 35 33 32 31 29 27 25 24 24 24 25 27 27 27 27 26 23 23 23 20 18 16 15 15 14 14 13 11 12 10 10 11 11 11 11
41 45 51 51 50 50 48 45 43 40 38 38 35 32 31 29 27 26 25 25 27 28 28 28 29 27 25 25 24 22 19 18 17 16 14 15 12 14 15 11 12 11 12 11 12
37 42 46 49 51 51 50 47 46 42 40 39 39 37 35 32 30 29 28 27 28 30 29 29 29 28 26 26 24 22 20 18 18 17 14 13 12 18 12 11 10 10 11 13 15
34 37 43 46 49 50 51 50 48 46 43 41 40 41 39 36 34 33 31 30 31 32 31 31 29 29 27 26 24 23 21 20 18 16 16 14 12 14 13 11 10 10 11 13 16
38 41 39 42 46 49 50 50 51 49 46 43 42 42 43 40 38 36 34 34 35 34 33 32 31 30 29 27 26 25 22 20 19 19 18 17 13 18 16 14 14 13 14 15 17
43 45 42 40 43 46 48 50 50 50 49 47 45 44 45 43 40 38 37 37 37 37 36 35 34 32 30 29 30 27 23 22 22 22 22 20 17 19 19 16 16 16 17 17 20
42 43 42 41 40 43 44 47 50 50 51 49 47 45 44 45 43 42 41 40 41 41 39 38 38 33 31 36 31 29 27 25 26 27 28 26 22 23 24 18 19 20 18 21 24
45 47 45 42 42 42 41 43 46 50 50 50 50 49 47 45 45 44 43 43 43 43 43 42 40 35 38 36 34 32 31 30 30 32 33 30 27 26 27 26 24 23 23 26 28
43 46 49 47 45 42 41 41 42 45 50 50 51 50 50 49 48 47 46 45 46 47 47 45 43 40 40 39 37 36 36 35 36 35 36 35 37 29 28 30 30 28 29 29 32
49 43 45 51 54 48 47 45 44 44 48 47 49 49 50 49 51 50 50 49 49 49 49 49 47 43 41 41 41 41 40 40 39 39 38 39 49 32 28 31 31 31 33 34 33
48 48 47 46 47 41 50 54 51 42 50 49 48 50 49 50 50 48 50 50 50 49 50 49 47 46 44 42 43 44 42 41 41 40 40 44 47 40 32 31 31 33 34 36 38
52 48 49 51 50 46 50 39 40 54 58 55 51 47 48 47 50 49 48 51 51 51 52 53 52 48 47 45 44 45 44 43 43 41 44 47 46 44 39 36 35 35 37 39 39
55 52 51 48 49 52 45 42 45 50 58 55 56 53 47 49 49 49 48 49 50 51 53 53 53 51 49 48 46 45 45 43 44 46 47 49 50 49 43 47 40 41 41 41 39
57 56 55 54 56 53 51 51 51 42 50 39 53 55 59 54 47 50 50 49 50 52 53 53 55 54 52 49 47 45 46 48 51 50 48 50 56 51 44 45 48 51 46 46 45
50 54 58 56 56 58 58 57 52 54 53 50 49 49 43 55 62 56 51 50 50 50 51 53 54 53 51 50 50 50 50 48 49 50 54 55 52 50 48 49 50 51 57 52 51
42 45 49 55 58 58 59 63 57 55 55 55 49 53 53 52 50 54 55 58 52 52 52 54 56 55 54 53 53 53 52 52 53 53 55 55 54 53 53 56 56 57 56 56 49
42 42 44 47 53 58 61 67 61 62 60 59 62 57 52 46 45 55 50 49 57 58 53 53 56 58 58 58 56 54 55 56 56 56 56 56 55 55 58 60 60 62 58 49 39
45 46 47 49 53 57 62 63 64 62 63 63 64 61 64 64 55 50 50 41 43 50 56 53 56 59 57 55 58 59 59 61 63 62 61 60 61 58 60 63 62 60 61 49 42
52 50 52 54 55 55 55 55 59 64 66 62 65 66 66 68 68 63 52 45 46 47 45 45 48 47 57 64 64 62 58 56 56 57 59 61 65 62 65 65 60 55 53 50 48
60 58 57 58 55 55 55 58 58 60 62 67 69 66 69 73 70 68 64 63 59 58 59 60 61 57 56 54 58 59 59 59 57 58 70 66 70 66 63 58 51 50 51 52 53
66 64 63 61 58 58 60 61 59 60 61 61 67 71 71 70 69 69 72 69 70 65 64 66 63 63 58 56 54 56 55 54 55 58 56 62 56 66 52 51 53 53 50 55 54
70 68 67 66 63 64 64 61 62 63 62 63 64 62 65 69 72 70 65 65 71 68 67 65 65 65 69 62 63 65 63 59 60 58 58 58 59 49 45 48 49 52 54 52 54
71 71 70 68 67 68 67 64 64 66 65 66 66 67 68 66 67 71 73 74 77 68 63 62 63 56 69 71 72 72 66 63 62 60 61 61 53 45 48 49 50 56 58 57 57

GFSSW_500_spd_054.txt.gz
Wind_Speed
45 44 44 43 42 40 38 35 33 30 28 27 26 26 26 26 24 23 22 21 22 24 24 22 20 20 19 17 15 13 11 9 6 5 5 4 2 1 1 2 4 4 5 3 3
46 46 46 45 44 42 40 38 35 32 30 29 27 27 27 26 25 25 23 21 22 24 24 23 23 22 21 19 18 15 14 11 8 5 3 1 1 2 3 3 3 4 4 5 5
47 47 47 47 45 44 42 39 36 34 32 29 28 28 27 26 26 26 25 24 23 24 24 24 24 25 23 22 21 19 16 14 12 8 6 4 5 5 7 5 4 4 5 6 7
48 48 49 48 47 47 44 41 38 36 33 31 30 29 29 28 28 27 25 26 25 24 24 23 24 25 24 23 22 21 19 17 15 13 9 7 8 8 10 7 7 7 6 7 7
48 49 48 48 49 49 47 44 41 38 36 34 32 32 30 30 29 28 28 28 27 25 24 24 25 25 25 24 24 23 21 19 18 16 13 11 11 10 14 8 9 9 9 7 7
44 49 50 50 49 48 47 45 43 41 40 36 35 33 32 32 31 31 29 29 27 26 26 25 26 27 26 26 26 24 22 21 20 18 15 14 12 14 14 10 11 10 8 6 7
39 44 49 52 51 50 49 47 45 44 41 39 38 36 35 35 33 33 31 29 27 27 26 28 28 28 28 27 26 25 23 22 21 20 16 16 13 16 13 12 11 9 7 7 9
43 39 44 48 50 51 51 50 49 46 45 43 41 39 39 37 36 34 32 30 28 28 29 29 29 30 31 29 28 27 24 23 22 21 19 17 15 14 13 11 10 9 8 9 9
46 44 36 42 46 49 51 51 50 49 48 46 43 40 39 39 39 36 34 32 31 30 30 30 32 31 32 31 30 28 26 24 23 21 20 18 16 16 13 13 13 13 13 13 13
47 42 52 39 42 46 49 51 53 50 48 48 46 43 41 40 40 39 38 35 34 33 33 33 34 33 33 31 30 30 27 25 24 25 23 20 18 18 16 13 14 15 15 15 17
48 43 40 46 44 40 45 49 51 52 50 49 47 45 41 41 40 41 41 39 37 37 36 36 36 34 33 37 36 31 29 28 29 29 27 25 21 22 21 16 19 18 17 17 20
40 39 37 37 46 45 42 44 47 48 49 50 50 48 45 44 42 42 42 42 40 39 39 40 38 36 39 39 36 33 32 30 33 33 31 30 24 25 24 20 23 22 22 23 23
42 43 45 45 48 47 43 41 41 43 48 49 51 51 49 48 46 44 44 44 43 42 42 42 41 40 42 41 38 34 34 34 37 37 35 33 32 28 25 25 27 24 26 27 28
44 45 48 48 47 45 48 45 39 39 40 43 48 49 50 50 50 47 46 45 46 45 45 45 45 44 43 42 41 39 38 40 40 40 40 37 45 30 27 28 27 27 29 28 31
47 45 46 39 44 46 44 44 43 42 49 46 43 47 49 50 50 49 47 47 46 46 46 45 44 45 45 44 44 44 43 43 43 43 44 44 48 38 31 31 29 30 30 32 33
48 49 53 57 48 45 47 52 49 50 51 47 52 48 44 47 49 49 48 48 48 47 47 48 48 47 48 48 48 48 46 45 45 45 48 47 46 47 35 30 32 31 32 35 36
53 50 53 56 51 50 49 49 55 58 50 52 49 47 49 47 48 48 48 48 48 49 50 50 50 49 48 48 49 50 48 46 47 49 51 50 49 50 41 38 36 35 37 39 38
56 55 56 54 53 51 52 46 63 57 51 41 49 51 56 46 48 46 49 48 48 50 51 51 53 52 50 48 47 46 47 48 52 52 53 54 54 50 43 45 41 41 40 42 42
55 56 57 59 59 56 53 52 59 54 51 47 42 47 47 49 53 53 48 46 48 47 50 52 52 51 50 49 50 52 53 51 52 53 56 56 54 52 48 44 48 47 47 48 46
45 49 52 58 59 58 62 60 57 57 58 52 48 42 50 42 48 54 54 54 50 48 49 51 53 53 53 53 53 54 54 55 56 57 59 59 57 53 49 50 46 52 54 50 50
40 42 45 50 56 60 63 62 61 58 58 57 55 56 51 49 51 49 51 48 53 59 54 53 55 57 57 57 55 54 56 57 58 59 61 60 61 53 51 52 55 53 54 54 55
41 43 44 46 50 56 62 63 63 63 61 62 60 57 58 59 57 55 50 46 45 48 54 56 60 63 60 58 57 56 56 59 62 61 61 59 61 53 53 55 55 55 53 55 58
48 46 45 45 49 51 51 54 57 60 59 61 63 61 62 61 59 60 54 44 40 48 50 48 46 52 61 65 62 61 60 58 57 59 61 61 61 52 56 56 56 55 57 58 60
56 55 53 51 47 46 48 51 53 55 56 62 63 62 64 67 66 64 62 63 61 58 53 55 53 48 52 53 56 61 61 58 59 60 62 62 61 56 57 56 57 59 61 64 65
64 61 59 57 52 51 51 50 50 52 54 56 60 64 66 65 64 69 68 67 67 68 68 68 68 60 53 54 53 53 54 54 57 60 64 65 63 64 60 62 64 65 59 56 57
70 66 64 62 60 58 58 54 53 53 54 55 56 57 61 64 67 69 69 70 74 72 69 69 71 70 68 63 64 69 66 62 60 58 59 60 62 62 50 51 54 55 53 55 55
77 73 71 69 68 66 62 59 60 60 58 58 58 61 61 58 63 65 70 74 76 74 69 60 58 52 61 62 59 70 66 64 63 63 61 64 54 46 48 48 49 49 58 57 58

GFSSW_500_spd_057.txt.gz
Wind_Speed
44 44 45 45 42 38 37 35 31 30 30 29 29 27 26 27 27 26 26 26 26 25 24 23 22 20 19 18 16 15 13 11 9 6 4 3 2 2 1 1 2 2 2 3 3
45 45 45 44 45 43 39 35 36 33 31 30 30 29 29 29 27 26 25 25 25 25 25 25 25 23 22 21 18 16 16 13 11 9 6 5 3 1 2 2 2 2 3 4 4
46 46 46 46 45 44 42 40 38 36 33 31 30 29 30 29 28 28 27 26 25 24 25 26 26 26 26 25 22 20 18 15 14 12 10 8 7 5 4 4 4 2 4 5 6
47 47 48 48 46 45 44 43 41 38 35 33 31 30 28 29 30 30 29 28 26 25 24 25 27 27 28 27 24 22 21 18 17 15 13 12 11 9 10 6 7 7 6 5 6
48 48 48 49 48 46 45 44 42 40 37 35 33 30 29 30 31 29 29 28 27 26 25 25 27 28 29 27 26 24 24 21 20 19 17 15 15 11 15 8 9 9 7 5 5
47 50 50 50 49 48 47 47 45 43 41 37 35 33 32 32 32 31 31 30 29 29 28 27 27 29 29 28 27 25 26 24 22 21 20 18 17 15 18 11 13 11 10 7 6
41 48 52 52 52 51 49 48 48 46 43 40 38 36 35 33 33 32 32 31 31 30 30 30 30 30 29 29 27 27 27 26 24 23 21 21 18 18 17 14 13 12 10 9 9
44 44 49 53 54 53 52 51 50 48 46 44 41 39 37 36 34 34 33 33 33 32 32 31 32 32 30 28 28 28 29 27 25 25 22 23 18 22 18 14 13 11 10 11 11
47 46 44 50 54 55 54 53 52 51 49 48 45 42 41 38 36 35 35 35 34 33 32 33 33 33 31 31 30 30 29 28 27 27 25 24 20 22 18 13 12 12 13 14 14
46 50 49 45 51 53 57 56 55 54 52 50 48 46 44 41 38 38 37 37 36 35 34 34 34 34 33 32 29 34 32 30 30 28 27 25 20 23 20 16 13 13 13 14 16
49 53 53 47 47 45 49 52 55 55 55 52 51 49 46 44 41 40 39 39 39 38 37 37 36 35 31 34 36 34 33 31 31 30 30 27 24 24 23 17 17 16 16 16 18
46 49 48 51 45 41 42 45 50 52 53 54 54 52 50 46 45 44 41 40 41 40 39 38 38 35 36 35 37 36 34 32 34 35 33 32 26 27 26 22 21 20 19 21 21
46 47 47 47 44 42 44 41 43 46 51 53 54 54 52 50 48 46 43 42 41 43 42 41 40 37 37 39 39 36 35 34 37 38 38 35 31 31 28 25 26 22 23 24 25
41 44 46 47 45 42 41 50 48 44 47 51 53 53 53 52 51 48 47 44 43 43 45 45 44 40 40 41 41 40 40 39 41 42 41 38 42 34 30 29 28 26 29 27 27
34 42 42 42 44 42 43 41 46 49 47 48 48 50 50 52 51 50 48 47 45 44 45 45 45 42 42 42 43 45 43 43 43 44 45 43 47 37 33 32 28 31 32 32 32
49 54 45 49 45 43 45 40 45 48 52 51 48 48 48 50 51 48 48 49 48 46 46 47 47 46 46 44 45 47 48 47 47 47 49 47 49 47 36 36 31 34 33 34 35
56 53 53 47 49 48 39 43 49 48 42 48 47 47 47 46 47 48 47 49 49 48 49 49 49 47 46 46 46 48 49 49 50 52 50 52 52 50 47 39 37 36 37 36 37
60 59 58 54 51 49 46 38 53 48 46 44 44 45 45 47 47 46 45 50 50 51 52 51 53 51 48 47 46 46 46 48 52 54 54 57 53 48 51 45 43 41 41 41 42
64 64 62 59 55 52 57 60 46 50 53 54 54 51 49 48 49 49 50 50 48 51 51 51 54 53 51 49 50 52 53 49 52 55 59 59 53 52 52 50 50 44 44 47 47
60 65 63 63 62 61 62 64 58 58 55 55 57 57 54 54 47 54 56 49 50 46 47 50 55 55 54 52 52 53 53 56 57 59 61 60 58 55 54 54 51 52 50 50 50
47 54 59 61 63 65 66 64 66 61 63 60 59 61 58 59 42 43 47 53 56 53 51 49 54 57 57 58 56 55 57 58 59 60 62 61 61 56 55 56 54 54 57 56 56
42 46 48 54 59 64 66 64 64 62 60 58 57 57 60 57 54 41 45 47 48 51 56 57 61 59 57 59 57 57 55 58 62 61 63 62 61 54 55 56 57 57 57 57 58
45 45 46 49 54 60 61 65 67 65 62 64 61 60 60 62 57 57 54 51 49 42 46 46 50 55 60 66 64 60 58 58 59 60 64 64 59 51 56 57 57 56 57 59 59
51 51 50 50 51 53 54 56 61 65 63 64 65 66 66 66 65 64 59 61 59 57 55 50 49 52 56 53 59 65 67 63 61 62 62 64 59 53 57 59 57 57 58 61 62
61 58 55 53 49 48 51 53 54 57 58 59 65 68 67 65 67 69 67 66 65 61 62 63 59 57 58 60 58 57 55 54 60 65 69 67 62 63 58 57 58 59 59 57 59
68 64 61 59 56 56 54 50 48 49 53 54 56 56 59 64 66 65 69 72 70 70 69 68 70 66 61 60 61 63 60 58 58 58 62 65 68 57 58 58 57 60 62 64 65
75 71 69 66 65 65 59 54 53 54 53 51 52 54 57 57 60 62 66 69 70 67 67 70 72 74 77 76 78 81 66 65 64 63 63 66 60 55 56 56 54 53 57 63 63

GFSSW_500_spd_060.txt.gz
Wind_Speed
40 42 45 43 42 40 37 36 32 30 31 28 28 27 29 31 32 32 31 28 26 24 22 20 19 17 16 16 14 13 12 10 9 7 5 3 2 1 1 1 2 2 1 1 2
40 42 45 45 47 39 38 36 34 31 29 29 27 27 27 30 31 32 32 28 27 26 25 23 22 20 18 19 17 14 14 13 10 9 7 5 3 3 3 3 1 1 2 2 2
42 43 44 45 45 40 42 36 35 32 32 30 30 31 30 30 29 30 28 27 27 26 26 26 25 23 22 22 20 18 18 14 13 10 9 8 7 6 6 4 4 3 3 3 3
44 44 45 47 47 48 46 44 39 37 34 32 31 32 31 31 30 28 27 27 26 25 26 27 26 25 25 25 23 22 22 19 16 14 13 11 10 10 9 5 7 7 4 4 3
45 46 46 46 48 47 45 44 39 37 34 35 33 31 30 31 29 29 28 28 27 26 26 26 26 27 28 26 27 26 24 23 20 17 16 14 13 11 15 8 10 10 7 6 4
46 47 47 48 48 47 46 44 44 41 41 38 35 34 30 28 28 29 29 29 28 28 28 27 26 25 28 26 29 26 28 26 24 20 19 18 16 13 19 11 12 12 11 7 7
45 47 48 49 50 50 49 51 46 44 42 40 37 35 32 29 29 29 29 29 30 29 29 28 27 27 25 28 29 29 31 29 26 23 21 22 17 16 18 15 13 13 11 10 8
38 45 47 49 48 49 49 49 48 47 45 43 40 38 34 32 30 30 30 30 31 30 30 29 28 28 27 27 29 31 32 30 28 25 24 24 17 19 19 17 14 13 11 10 10
49 41 42 47 50 49 50 50 50 49 47 45 43 41 38 35 33 32 30 31 32 31 31 31 30 29 30 29 30 32 31 31 30 27 25 27 20 20 21 18 13 12 12 11 12
47 50 41 43 48 52 52 53 52 52 51 49 47 45 42 39 37 36 34 32 32 32 33 32 31 32 31 32 30 33 34 33 30 30 28 28 22 23 22 19 15 13 14 12 12
43 47 46 42 41 48 51 52 52 53 53 50 48 47 45 43 40 39 37 34 34 34 34 34 33 32 29 31 33 35 34 32 33 31 29 30 25 23 23 20 17 18 16 14 15
49 45 50 48 47 43 47 51 52 51 52 52 51 49 49 46 44 42 40 38 36 36 36 36 34 33 33 33 34 35 36 32 32 33 33 32 28 25 25 23 22 19 18 18 19
43 51 52 51 49 50 44 47 50 52 51 53 54 53 51 49 47 45 43 42 39 38 39 39 38 37 35 35 36 37 37 33 34 37 33 36 30 28 28 26 24 21 22 22 23
42 41 46 53 52 47 52 48 48 47 51 53 53 54 53 51 50 48 47 46 44 41 41 40 42 40 38 37 38 38 38 38 37 39 38 37 37 31 29 28 26 25 26 26 27
44 41 42 41 46 49 50 48 44 47 47 51 54 54 52 53 52 50 50 49 46 45 43 42 41 41 40 39 40 41 40 40 39 42 41 39 42 29 30 32 30 27 29 30 30
45 40 39 40 40 43 39 40 42 48 54 50 49 52 53 54 54 53 51 51 49 48 47 45 44 44 42 43 43 43 43 43 42 44 44 40 41 42 30 33 32 31 33 33 33
47 37 39 37 38 39 41 39 40 42 43 47 52 53 51 51 54 53 52 53 51 50 49 49 48 45 43 43 45 45 45 44 45 47 46 47 44 47 40 34 36 35 37 38 36
54 55 51 40 37 39 43 41 41 42 38 41 39 42 48 52 50 52 53 54 53 52 54 52 54 51 46 44 44 44 45 45 48 48 48 50 47 45 48 43 39 41 41 41 41
60 56 57 57 49 51 47 49 45 41 42 42 40 38 46 46 49 48 47 48 50 51 52 52 54 53 50 48 48 49 50 46 49 50 53 52 47 49 49 50 50 46 44 43 43
65 63 62 60 62 61 52 50 48 47 48 46 45 46 43 45 48 48 47 48 46 45 47 51 53 56 56 53 52 53 52 52 53 55 56 54 51 48 49 51 52 54 53 49 46
62 66 64 64 65 65 63 56 51 54 52 49 46 47 51 50 49 49 48 50 46 49 50 51 50 54 57 58 53 51 53 55 55 55 57 57 55 51 49 51 53 55 56 55 54
44 53 55 61 64 66 65 63 59 54 56 55 57 49 51 49 54 55 54 51 53 43 53 53 52 56 55 54 53 53 53 56 59 58 59 58 56 52 51 54 56 56 55 56 54
40 43 46 51 59 64 64 62 61 61 60 59 61 59 54 54 50 49 52 54 51 51 47 47 52 60 57 57 57 53 52 52 54 55 58 60 53 49 54 55 55 55 56 56 59
42 43 44 46 52 57 59 61 62 63 63 63 62 64 61 59 59 59 51 57 58 53 48 46 45 43 45 51 56 58 58 59 59 62 59 61 58 54 53 54 55 56 57 59 61
49 47 46 47 46 49 51 55 55 60 61 61 65 66 62 62 62 62 60 59 56 58 64 56 52 50 49 48 48 50 50 53 58 59 66 60 65 55 55 54 57 57 59 60 62
58 54 53 50 48 50 51 50 51 51 57 55 59 58 58 60 61 60 60 64 64 66 66 69 65 63 63 58 61 58 53 56 59 57 59 57 59 46 53 60 63 61 63 65 68
65 62 61 58 56 55 51 48 48 49 51 52 52 54 56 55 58 63 65 63 61 61 59 64 66 68 69 66 65 67 59 59 60 61 59 60 58 54 56 57 59 60 62 66 69